GFSSGP_500_rhum_000.txt.gz
RH
2 2 2 4 4 8 34 60 58 68 62 40 20 22 61 22 52 58 72 86 84 75 81 83 90 84 80 83 86 75 84 63 72 90 65 58 64 72 91 97 96 96 96 95 94 90 90 73 46
2 3 4 6 7 67 69 62 76 70 42 15 13 61 16 17 42 80 96 71 52 68 73 78 71 69 60 62 58 47 53 58 62 67 64 73 72 66 77 91 94 92 96 96 97 96 98 89 95
5 8 7 6 44 74 93 84 81 58 30 6 5 13 19 90 25 27 38 39 45 65 64 67 67 67 60 54 53 51 41 43 50 65 75 76 71 72 95 95 89 78 83 96 96 95 96 97 96
12 10 6 53 66 68 68 73 72 46 1 12 44 20 18 40 38 24 39 45 46 47 49 51 48 45 42 40 44 49 53 60 56 63 67 53 66 76 78 68 59 46 39 36 84 94 96 94 96
12 9 32 58 68 66 46 43 37 42 60 6 28 17 95 43 32 44 52 52 51 47 46 48 41 51 50 44 38 44 64 70 70 71 62 50 44 52 47 51 48 40 30 32 33 44 78 96 96
12 54 58 60 46 4 3 5 9 10 5 6 14 75 51 48 38 58 44 42 43 71 75 76 77 63 42 31 21 30 41 41 40 39 38 39 35 28 51 45 43 31 23 18 15 22 36 73 82
28 64 68 63 37 8 3 4 5 4 4 6 9 24 88 50 20 17 18 20 41 64 66 52 33 35 32 16 14 10 12 15 20 21 23 31 28 21 22 22 27 25 14 4 0 0 21 55 92
30 54 52 51 58 40 5 5 5 5 5 4 7 30 29 59 8 9 9 8 9 9 9 9 6 7 5 4 4 6 8 10 11 8 6 7 9 6 4 3 4 5 2 1 1 1 6 28 55
46 56 50 34 53 34 16 8 13 6 7 6 6 6 8 9 11 11 10 9 9 8 9 8 6 4 4 11 4 4 6 6 8 12 14 16 17 13 10 9 8 10 9 7 7 9 9 11 25
56 67 40 28 28 25 25 21 21 17 24 28 29 32 31 28 26 22 19 19 20 20 26 30 22 28 35 34 36 19 21 23 26 27 26 28 31 34 32 28 25 20 22 21 24 27 29 26 32
25 24 24 17 15 19 15 16 12 13 21 9 6 5 13 17 17 24 24 29 18 21 29 36 36 31 20 15 23 32 19 11 11 10 11 13 14 13 10 10 7 5 11 10 13 21 31 39 39
3 4 4 4 4 4 4 4 4 4 4 4 4 3 4 5 4 4 4 6 6 6 10 10 8 5 4 6 6 8 9 8 8 7 5 4 3 4 4 5 5 5 5 5 6 9 12 12 12
7 7 6 5 5 6 5 5 5 5 5 5 7 8 8 8 8 8 8 8 9 9 9 8 7 8 8 8 8 9 10 10 9 10 9 8 7 6 6 6 6 6 6 6 8 10 11 10 12
10 11 10 8 7 7 7 9 10 12 12 14 15 15 16 18 16 14 15 16 17 17 17 16 14 13 13 13 13 14 14 13 13 13 14 14 14 12 8 6 7 7 6 7 9 12 14 14 11
15 12 12 12 12 12 12 12 12 16 13 15 15 16 17 19 21 20 21 23 22 22 21 22 21 23 24 24 23 21 22 20 21 23 23 21 21 20 19 18 16 16 17 16 19 17 18 15 16
18 25 62 24 17 17 18 20 24 22 24 23 23 19 18 19 17 18 20 22 22 23 22 23 24 25 28 25 27 25 26 26 24 28 33 35 35 35 36 34 33 31 32 36 38 33 28 28 21
72 39 27 26 21 20 20 23 27 29 28 24 23 24 22 19 22 23 26 24 27 28 26 25 26 24 28 25 24 24 23 24 24 30 31 34 36 38 39 38 39 42 41 43 48 50 50 51 46
30 29 25 24 24 26 25 27 25 22 19 16 17 14 13 18 17 11 21 21 19 16 16 15 16 16 19 18 20 19 22 23 25 26 25 32 33 34 36 40 47 49 45 42 44 48 51 52 52
27 25 22 22 24 26 26 26 23 22 21 14 11 11 11 10 11 11 10 12 12 13 14 15 14 14 16 17 20 22 24 26 28 30 28 31 30 32 36 45 44 49 57 63 59 55 55 55 55
27 24 25 28 23 21 27 24 23 19 13 13 13 13 12 12 12 13 12 14 16 17 18 20 21 21 21 23 22 25 27 29 31 37 40 41 49 55 67 72 64 64 67 73 75 72 66 68 69
28 29 27 26 26 19 24 27 14 18 15 13 16 15 15 16 16 19 24 29 31 35 39 42 42 41 38 37 39 36 38 46 48 50 54 51 54 63 83 84 85 81 79 82 82 79 73 66 75
27 26 27 28 29 28 24 33 64 22 18 18 21 25 28 30 31 35 36 38 39 42 46 51 55 53 50 47 51 62 58 54 60 69 71 74 68 73 72 74 72 66 73 84 89 87 83 72 74
24 24 25 26 27 29 28 29 49 50 43 32 29 30 36 42 39 42 45 45 49 51 53 57 61 62 61 61 58 58 76 70 82 92 93 93 94 90 87 83 80 87 92 91 96 100 100 94 78
24 23 24 22 27 31 31 36 39 61 80 44 52 58 43 42 49 54 56 58 60 53 52 59 65 67 68 68 70 68 67 82 87 94 97 96 96 99 100 98 100 98 100 100 98 98 98 100 100
24 25 24 26 34 33 63 36 44 56 72 76 77 62 52 49 55 41 39 43 56 55 59 63 62 63 66 72 80 77 78 85 96 97 91 88 83 90 96 98 93 100 100 98 100 98 98 98 98
30 34 35 35 34 34 40 44 46 74 91 86 76 75 60 44 46 43 42 45 46 50 60 70 69 67 73 71 75 82 88 86 90 94 86 81 96 100 100 100 100 100 100 97 100 100 100 100 100
37 36 38 38 40 37 38 50 56 78 99 98 93 86 62 68 58 49 46 49 46 57 66 70 65 75 79 93 95 97 96 92 86 86 77 83 88 99 100 100 100 100 100 100 100 100 100 100 100
36 37 38 40 41 45 48 54 59 96 92 89 96 99 80 69 57 55 56 60 61 76 76 70 68 78 94 100 100 100 100 90 79 70 76 83 93 100 100 100 100 100 100 100 100 98 92 84 79
39 44 49 50 59 59 53 50 74 77 67 66 64 67 69 71 68 63 65 70 67 76 79 73 73 82 86 93 91 98 90 69 60 75 89 100 100 100 100 100 100 100 100 100 95 82 76 68 58
47 57 61 62 55 55 53 35 74 72 80 78 88 79 68 66 64 69 79 83 72 76 81 84 76 71 72 76 84 79 76 50 48 72 94 100 100 100 100 100 100 100 100 86 79 73 65 55 43

GFSSGP_500_rhum_003.txt.gz
RH
1 1 2 3 4 14 55 63 77 67 60 56 52 46 32 45 52 79 96 91 93 91 77 91 96 100 97 95 89 82 80 87 59 80 46 48 58 87 71 73 88 94 97 97 97 94 97 94 94
1 3 6 6 22 38 67 80 67 52 58 65 59 40 15 17 53 82 99 92 63 86 83 83 88 92 83 74 64 60 60 55 50 40 38 38 59 63 75 84 75 77 94 94 94 96 96 89 96
4 6 11 59 55 82 91 78 72 62 64 63 57 15 3 26 58 64 64 70 61 60 78 71 66 71 83 74 65 47 45 43 42 43 44 55 52 73 87 59 62 68 66 52 52 76 87 95 96
10 10 39 58 70 73 61 73 82 69 66 52 21 2 10 38 71 57 39 24 26 37 44 52 66 71 62 50 44 39 32 33 32 38 44 51 62 73 67 58 44 42 40 41 34 34 50 90 74
8 29 59 63 65 59 55 47 62 68 57 8 3 6 26 71 69 23 25 38 40 50 51 55 57 58 58 47 66 41 25 22 29 35 38 48 55 47 42 38 32 34 41 40 30 20 14 8 10
43 51 64 68 56 33 14 20 8 11 10 5 13 22 44 71 64 47 38 26 59 44 53 63 59 68 76 60 37 25 31 15 13 16 22 28 27 23 24 34 22 15 15 16 25 17 4 0 0
49 65 71 69 62 30 5 3 3 3 3 6 5 9 13 63 50 26 34 12 9 10 20 21 20 24 22 13 12 10 10 7 7 8 8 9 7 6 5 5 3 2 2 3 4 6 1 1 1
47 51 51 60 28 11 14 11 9 6 8 10 10 12 10 28 25 11 16 12 11 8 7 7 6 10 20 5 5 6 6 4 5 6 6 8 9 12 13 10 7 7 10 13 11 9 10 10 6
45 57 48 30 18 15 17 14 16 16 18 15 17 24 24 34 32 30 24 21 22 15 12 14 21 19 11 14 28 29 33 21 9 12 20 24 25 28 31 30 26 23 21 19 18 18 18 18 22
26 22 35 28 25 21 17 19 7 10 11 7 16 5 2 4 4 4 13 13 18 28 27 27 28 26 21 12 14 24 35 35 22 15 9 7 8 9 11 9 7 6 6 6 6 5 4 4 7
9 24 9 8 7 3 2 2 1 2 2 4 2 2 3 4 4 3 3 4 4 4 4 4 4 4 4 5 5 5 5 6 6 6 6 6 6 5 5 4 4 4 4 4 4 5 4 6 6
4 4 3 3 4 4 4 4 3 3 4 6 8 8 8 8 9 9 10 10 8 9 10 9 8 7 7 8 8 8 8 8 9 8 7 8 7 6 6 5 5 6 8 7 5 5 6 4 6
9 6 3 4 7 6 7 8 10 9 10 12 11 13 14 14 14 14 15 16 18 18 18 16 15 14 14 14 13 14 14 14 14 14 14 15 15 14 14 13 12 12 12 14 13 15 16 14 12
9 8 7 6 6 8 11 11 12 13 12 17 18 20 20 19 16 16 19 20 22 23 24 25 26 28 29 30 29 27 28 27 27 27 27 27 27 27 30 31 33 34 30 33 32 32 30 25 19
14 14 10 12 12 13 15 14 17 18 20 20 17 25 20 15 16 17 16 21 23 24 26 28 27 29 26 28 26 23 29 26 25 27 28 25 26 27 28 28 28 28 31 31 33 37 39 39 40
18 15 12 13 15 16 18 20 22 14 12 13 16 21 21 25 20 14 16 18 19 17 20 21 17 18 17 16 17 16 18 18 17 20 23 23 25 28 28 29 29 28 32 41 46 45 39 38 44
14 19 24 23 18 18 19 23 23 18 14 10 11 9 9 10 10 13 17 17 12 12 13 14 15 16 17 17 17 16 17 20 20 21 25 27 28 28 28 30 34 34 34 36 49 56 64 62 47
25 28 23 19 17 21 19 20 20 17 15 10 11 11 9 6 6 6 7 9 10 10 12 15 19 23 28 32 33 28 24 22 21 22 22 30 34 36 36 40 48 49 45 44 54 61 64 64 66
21 21 20 19 19 20 18 15 15 16 18 12 13 14 13 12 11 12 11 13 17 23 29 33 34 35 38 40 43 45 38 38 39 40 36 34 40 48 48 47 48 50 55 64 77 75 69 67 68
20 21 21 24 22 17 19 18 16 22 22 16 15 18 22 25 31 27 24 27 33 35 37 40 42 47 54 58 57 56 54 51 50 50 50 51 51 49 46 57 59 62 63 71 80 75 72 67 64
19 21 21 20 23 25 18 26 20 17 19 28 31 24 24 26 26 36 42 42 40 44 52 53 54 56 57 56 60 62 60 59 62 58 58 59 56 54 52 56 62 70 76 79 81 80 77 71 71
24 22 22 22 21 24 25 30 34 35 30 28 27 31 32 34 34 40 48 50 50 53 54 60 66 66 64 58 54 58 70 73 71 78 85 79 75 80 81 77 69 68 72 72 72 73 82 78 80
19 22 23 24 26 27 25 26 49 51 45 47 44 48 60 72 48 52 53 49 56 60 64 62 62 71 75 78 79 78 78 81 84 91 97 95 85 81 78 72 69 70 63 62 68 77 89 100 98
18 19 24 25 25 31 30 35 45 47 56 64 71 82 91 77 48 47 48 48 47 45 46 50 52 54 55 62 66 66 68 74 83 94 96 98 95 89 82 72 62 68 75 93 98 100 99 99 95
20 21 25 28 33 31 43 40 53 64 91 100 98 95 86 68 62 60 51 44 46 49 51 52 56 56 60 68 63 68 68 66 65 66 70 87 90 77 68 83 96 100 100 100 100 100 100 99 100
25 27 29 32 27 26 37 44 53 56 72 69 75 88 81 83 67 57 56 61 61 58 60 61 71 59 70 81 83 81 85 83 77 74 72 66 60 46 59 93 100 100 100 100 100 93 93 97 95
28 32 32 35 39 40 44 50 76 63 72 97 86 92 86 78 65 64 72 73 65 58 62 77 72 66 70 73 84 86 86 87 81 73 62 54 38 35 51 93 100 100 100 100 100 100 99 98 95
36 32 38 42 41 38 36 39 81 87 75 97 92 84 74 77 79 87 82 67 61 72 73 65 69 74 72 66 74 81 79 77 68 58 46 37 47 72 95 100 100 100 100 100 100 99 98 99 99
37 40 52 51 62 57 60 45 83 96 85 84 88 82 84 83 91 81 72 66 69 62 64 72 70 72 66 60 62 75 81 72 52 39 39 46 77 94 100 100 100 100 100 100 100 99 98 98 98
51 60 63 73 76 69 83 46 78 91 100 100 100 86 81 92 79 70 77 77 71 66 62 67 70 73 60 59 64 71 73 60 46 48 46 81 97 100 100 100 100 100 100 100 100 100 100 94 77

GFSSGP_500_rhum_006.txt.gz
RH
1 1 1 2 3 4 4 27 22 18 35 40 62 62 58 55 56 54 69 96 85 100 100 98 96 96 94 97 94 97 89 84 90 83 80 61 62 62 51 85 90 84 77 74 74 86 85 96 97
1 2 4 9 17 15 28 25 43 51 66 63 59 58 57 57 51 46 76 84 72 95 86 86 82 92 90 96 93 76 64 74 64 51 46 41 37 38 63 66 76 82 69 51 57 55 52 58 85
3 5 5 16 27 36 44 36 45 60 54 61 58 51 55 56 28 33 59 83 81 78 66 72 80 77 74 66 73 72 78 68 50 43 33 26 26 30 51 59 76 73 52 39 38 36 39 37 55
10 10 15 20 44 33 37 69 74 75 70 69 62 61 44 9 11 48 67 65 65 50 44 29 48 64 66 67 67 64 57 50 39 27 21 28 27 30 36 44 48 39 45 34 28 30 40 27 38
10 30 40 25 29 41 71 61 53 34 32 30 44 32 6 11 28 33 80 38 46 28 37 50 50 49 47 42 42 43 34 31 18 19 18 14 27 40 46 42 38 36 27 22 16 25 30 27 22
34 28 22 20 28 50 58 28 4 5 4 3 3 5 6 9 23 33 46 41 25 15 12 17 50 42 32 34 33 28 14 11 18 19 10 8 12 14 14 10 10 9 8 4 3 2 4 7 11
24 24 33 27 24 47 22 4 3 3 4 5 7 6 8 11 44 28 9 8 9 9 8 12 14 11 9 8 12 10 6 4 3 1 4 7 6 6 9 11 14 13 11 12 16 10 10 12 8
26 20 16 12 16 14 14 13 12 13 14 15 15 16 12 10 30 38 27 35 21 17 14 16 12 9 10 14 14 5 5 9 23 18 5 4 9 20 26 27 29 26 20 13 11 12 13 9 9
12 10 12 20 19 17 16 15 17 17 18 14 10 15 18 24 32 36 22 23 40 44 35 26 26 27 33 31 29 28 30 28 32 34 33 23 15 9 7 7 8 8 7 6 6 6 6 6 6
20 20 22 26 11 4 1 1 2 1 1 1 1 2 2 3 2 2 4 5 5 6 11 6 9 10 7 4 5 7 8 7 6 6 6 6 5 5 5 5 5 5 4 4 5 8 7 5 4
5 3 4 3 3 3 2 2 3 4 5 7 7 8 9 8 9 10 9 10 9 10 10 9 8 7 6 6 7 8 8 8 8 8 9 9 9 8 8 8 9 9 8 7 5 4 8 9 6
3 3 4 4 4 5 5 6 6 7 8 8 9 10 11 13 15 15 15 16 18 20 20 18 16 15 14 13 12 12 12 12 12 13 13 13 14 15 16 17 18 19 20 19 19 17 15 16 16
4 4 4 6 7 8 10 12 13 13 10 11 10 10 10 10 12 13 15 16 19 22 24 26 26 24 21 22 23 25 23 24 25 24 23 25 24 23 24 27 28 27 25 26 27 26 24 23 22
5 5 5 6 7 11 11 16 20 23 19 20 17 19 13 12 15 12 13 15 15 16 19 21 20 22 21 25 23 21 20 20 20 21 20 22 23 22 23 24 25 26 26 29 30 32 30 28 27
10 12 9 10 12 14 14 15 16 19 22 23 21 21 20 24 21 16 15 16 17 16 18 21 22 19 19 19 20 20 20 18 19 20 21 21 21 23 24 27 30 32 35 38 41 43 44 49 54
16 14 13 12 13 15 16 16 16 13 13 12 12 13 13 18 20 20 23 25 20 14 14 14 14 16 17 20 24 30 37 42 44 40 35 30 30 29 30 32 31 32 35 37 40 46 49 51 53
17 9 8 10 16 12 14 17 15 8 11 10 8 10 10 10 10 9 10 12 14 14 14 15 20 27 33 35 38 40 42 45 48 50 50 46 41 40 40 43 42 40 42 47 46 46 50 50 50
18 16 16 12 13 12 9 11 11 13 16 13 12 8 8 9 9 10 11 12 16 18 21 26 31 35 36 38 43 48 48 48 46 45 49 52 52 50 48 48 50 51 54 58 58 58 58 59 57
17 16 16 15 11 15 16 15 13 19 17 16 16 14 13 13 14 18 24 27 28 34 38 39 42 47 51 50 50 53 55 56 55 51 50 53 59 63 62 59 60 62 64 65 66 67 71 68 67
18 20 19 19 17 13 17 18 18 19 21 25 24 25 27 32 34 31 36 45 48 58 66 67 68 71 72 67 60 61 61 62 63 62 61 60 60 65 70 73 69 70 73 73 79 81 80 76 73
21 22 23 20 22 17 16 18 20 23 23 28 32 33 36 41 41 34 44 52 60 58 59 67 76 81 75 62 53 51 54 59 62 62 64 63 60 62 66 69 69 63 57 61 64 73 73 68 66
20 19 20 22 23 24 22 28 29 27 29 33 35 40 42 44 43 42 45 49 46 55 59 56 58 58 52 48 49 52 52 55 63 64 66 67 66 68 69 66 62 58 54 54 54 55 46 40 49
16 19 19 22 24 30 34 32 40 32 37 44 39 42 44 40 46 55 50 49 56 61 62 60 58 51 46 42 42 44 44 47 51 58 62 66 67 72 75 73 66 63 58 50 41 36 31 25 38
12 18 21 25 28 37 33 35 42 40 53 63 71 56 47 51 71 86 73 68 69 70 72 70 56 51 50 51 52 57 60 59 58 62 66 63 60 60 63 64 61 52 45 38 32 29 30 33 48
15 18 23 25 27 31 37 44 37 46 53 68 73 76 78 97 100 79 72 75 77 72 76 69 66 61 63 66 70 79 80 77 73 71 70 70 63 58 64 59 48 43 42 40 58 74 79 88 77
21 21 22 26 25 33 38 44 41 43 60 54 58 72 72 78 71 80 74 80 85 90 72 65 64 70 71 67 66 68 73 78 82 78 72 69 72 67 59 51 48 52 76 93 100 100 99 100 95
24 27 29 30 32 34 44 49 48 80 69 67 70 72 64 69 78 83 93 92 87 74 69 66 68 71 63 57 55 58 64 69 76 74 74 73 69 56 56 55 62 84 100 100 100 100 100 100 100
38 32 30 34 38 37 35 43 52 80 84 95 85 73 69 77 88 89 88 82 69 64 64 70 66 60 55 53 51 48 46 48 61 68 68 71 68 65 52 45 67 97 100 100 100 100 100 100 100
37 36 34 38 51 47 52 41 66 71 83 93 91 87 94 97 95 82 70 69 65 64 64 61 59 54 51 47 43 39 39 39 50 67 77 71 64 50 33 39 84 100 100 100 100 100 100 100 98
50 50 49 48 48 50 60 40 74 65 76 69 77 82 80 83 78 72 80 89 78 72 71 69 64 57 48 40 35 31 31 42 73 75 68 57 38 30 36 69 100 100 100 100 100 100 100 97 100

GFSSGP_500_rhum_009.txt.gz
RH
1 1 1 1 3 3 2 5 5 9 28 52 68 73 70 68 65 65 66 61 53 44 84 93 95 98 93 90 92 96 97 91 84 62 59 58 53 46 37 33 37 49 64 56 66 67 39 45 49
1 1 1 2 3 4 4 4 8 19 44 47 64 72 69 67 70 65 61 48 42 41 79 74 78 88 88 84 83 87 83 82 68 72 68 60 48 33 25 26 39 42 50 54 61 48 34 34 37
1 1 2 3 3 5 12 12 17 18 26 44 64 71 70 68 64 58 52 46 32 64 70 78 84 85 85 83 78 73 65 61 54 61 52 43 33 22 22 38 50 43 34 36 42 32 34 28 37
3 5 6 8 5 18 46 54 44 41 44 45 58 68 72 77 55 13 24 53 72 76 64 52 45 42 36 34 35 42 42 44 47 50 39 30 29 18 15 39 43 41 45 50 43 38 24 23 35
7 9 7 10 26 39 44 33 19 13 15 9 11 11 27 27 10 8 32 83 73 60 56 46 39 30 19 27 36 29 34 38 30 17 13 20 25 13 12 18 23 24 22 23 25 22 8 6 7
7 7 18 29 36 25 18 10 6 4 4 4 4 5 6 6 7 25 49 66 60 48 30 16 9 6 8 10 11 9 9 9 7 6 5 4 1 4 9 7 9 7 7 9 8 9 8 5 8
7 8 27 34 33 35 19 14 7 6 6 7 10 12 15 16 14 41 31 19 16 15 16 11 9 8 15 9 9 9 15 11 6 5 11 17 6 4 5 10 20 23 23 26 23 19 20 19 15
12 20 27 26 11 13 17 15 13 13 16 18 19 19 21 21 22 31 35 42 40 38 24 22 21 19 20 25 31 31 31 30 32 32 37 35 30 22 18 22 27 28 20 9 7 6 5 5 5
22 20 14 12 14 14 14 13 9 4 3 3 3 3 2 3 4 5 8 10 10 9 8 8 15 22 28 27 12 7 7 9 11 10 9 8 6 6 7 7 7 7 7 6 5 5 5 5 4
18 7 4 4 3 2 2 1 2 4 4 3 4 6 7 9 10 10 10 11 10 9 16 12 8 6 5 4 5 7 8 8 8 8 7 6 6 6 7 8 9 9 9 9 10 10 10 8 7
3 2 3 3 4 4 4 4 6 7 8 8 9 10 10 11 12 13 15 16 18 20 18 15 16 15 14 14 15 15 15 14 14 13 13 13 15 16 17 18 19 21 22 22 22 23 24 23 23
4 5 5 5 6 7 8 8 10 9 8 8 8 8 9 9 10 12 13 14 17 17 18 15 13 17 18 20 23 23 25 24 24 24 24 24 24 22 22 23 26 27 26 26 25 26 25 26 26
4 5 6 7 9 10 11 12 12 15 15 14 14 14 12 13 12 11 12 13 14 13 13 15 16 16 17 18 17 18 18 20 19 18 19 20 20 19 19 20 21 23 23 24 27 28 30 30 29
4 5 7 7 9 11 13 14 13 12 12 12 12 11 11 12 10 10 13 15 17 16 19 19 18 17 16 16 16 17 20 25 30 35 38 40 38 35 29 25 23 24 24 24 26 27 29 31 33
9 9 9 12 13 14 14 16 11 13 15 16 13 13 10 9 8 12 14 14 15 14 16 16 16 16 18 19 25 36 38 37 38 38 39 44 46 46 44 45 44 41 38 39 41 37 34 33 34
15 14 14 13 14 15 14 10 7 11 15 14 11 11 12 11 11 12 14 15 17 20 23 27 35 39 42 43 43 42 42 44 49 51 52 51 46 44 45 47 49 49 49 48 47 48 51 52 50
18 15 14 14 16 16 16 12 12 16 14 12 13 14 10 12 13 14 16 19 20 25 33 39 45 44 43 43 42 45 48 47 45 45 44 44 47 47 45 45 46 46 52 58 60 61 59 58 58
16 17 13 10 13 14 11 11 11 14 14 15 15 17 18 20 22 20 22 26 34 41 42 49 55 55 55 54 54 52 50 50 49 48 46 45 45 45 47 49 49 49 51 58 64 66 66 71 72
22 20 17 13 10 14 14 13 15 15 16 18 18 19 23 25 27 24 25 34 47 59 63 62 60 61 61 59 55 49 52 51 48 43 41 44 49 53 54 55 54 53 54 56 60 64 69 75 76
19 20 19 16 13 10 12 15 17 18 17 18 19 23 28 34 35 33 36 43 61 59 58 59 64 65 68 66 63 61 61 55 54 57 50 44 44 48 54 62 63 63 64 68 79 88 93 91 85
15 17 18 20 22 16 20 22 24 23 24 24 25 29 33 39 43 46 54 66 66 58 60 64 66 63 56 54 53 52 55 50 50 49 49 48 47 53 57 61 64 66 65 63 62 60 60 61 64
14 16 17 18 20 22 27 31 30 28 28 30 34 36 42 42 46 48 54 57 60 60 61 70 65 62 57 54 55 54 51 46 42 41 42 46 49 47 50 56 62 64 60 55 55 53 49 49 51
16 14 19 21 23 26 26 31 30 28 30 33 40 44 44 43 37 38 41 48 66 72 79 75 70 63 58 55 55 54 51 50 48 48 43 45 48 51 53 52 54 56 57 56 52 50 52 52 52
14 19 24 22 21 25 27 27 25 30 33 40 45 55 52 53 54 53 64 73 82 72 72 62 57 59 58 58 55 52 50 47 46 46 45 46 45 49 55 56 59 65 72 69 63 60 57 57 53
13 15 20 22 25 25 23 22 28 35 44 65 68 62 62 74 68 68 66 60 66 70 60 63 68 64 57 51 51 51 51 51 49 47 46 44 44 44 48 63 68 71 70 68 64 61 55 50 74
18 22 24 28 23 24 26 29 31 37 50 66 54 51 55 46 49 56 61 70 80 70 71 71 60 57 54 55 55 54 54 54 53 49 43 39 35 32 38 46 60 63 59 54 47 48 45 89 94
18 22 27 26 26 30 39 44 42 48 60 51 51 46 41 46 57 62 66 80 75 74 64 54 56 53 51 52 55 62 61 57 51 46 39 36 35 38 47 58 62 54 46 38 59 100 100 100 100
24 30 30 31 34 32 33 44 46 52 46 50 41 41 49 58 64 68 70 78 80 64 47 50 53 52 63 70 68 64 59 47 38 36 39 41 44 42 37 43 46 44 27 39 87 100 100 100 100
39 39 36 36 38 37 34 31 52 43 41 43 53 63 69 72 73 67 67 77 65 51 47 44 51 64 70 66 66 58 43 26 24 37 42 49 39 20 16 32 36 14 20 58 99 100 100 100 100
42 41 39 37 36 38 42 37 56 51 47 53 55 57 62 60 58 62 52 49 54 48 48 51 62 70 68 65 59 43 24 28 30 37 35 29 20 26 26 18 14 29 72 100 100 100 100 100 96

GFSSGP_500_rhum_015.txt.gz
RH
12 10 6 5 4 4 4 4 4 4 5 9 16 29 48 66 62 58 66 75 76 72 61 47 30 31 40 35 28 57 53 55 53 43 25 28 37 32 37 33 39 47 40 37 44 46 50 47 46
8 6 3 2 2 2 2 2 3 5 8 12 22 40 50 52 58 72 73 75 71 50 30 44 64 70 80 88 86 61 55 66 52 32 21 26 27 25 18 18 25 27 30 25 27 55 55 49 40
4 2 1 1 2 2 3 5 6 11 13 23 40 45 42 51 63 69 76 72 23 20 36 72 82 85 87 82 74 59 55 56 41 26 17 11 12 10 10 10 21 25 24 19 10 21 27 35 34
1 1 2 2 3 4 5 8 9 10 20 28 33 36 32 14 13 32 52 27 13 18 37 52 75 75 67 53 39 18 11 8 7 7 9 13 8 6 10 5 3 4 6 8 7 9 8 8 17
2 2 2 4 7 13 16 12 15 24 33 23 6 5 4 6 9 7 6 10 27 35 43 44 42 20 15 14 11 13 14 11 16 13 13 15 16 9 17 24 26 18 5 6 7 9 13 17 17
3 5 7 9 11 14 20 26 13 6 6 6 5 8 11 13 17 19 20 28 31 30 29 27 28 28 28 26 21 20 22 17 9 10 14 20 21 20 21 20 16 16 18 20 23 26 28 26 20
10 10 18 18 19 28 27 17 8 9 9 12 12 12 12 10 7 9 10 9 9 10 10 6 4 8 10 9 10 8 5 5 6 6 6 6 6 6 6 5 6 6 6 6 6 6 7 6 5
19 23 27 26 21 22 21 10 10 7 3 3 5 3 4 4 4 3 5 7 8 8 14 12 12 12 9 9 10 12 14 15 17 18 19 20 18 17 15 14 13 13 12 12 12 12 12 13 12
33 32 19 14 18 11 5 2 2 3 5 5 6 6 7 7 6 6 5 8 11 16 15 16 18 21 23 22 21 21 23 24 22 20 20 20 20 20 20 21 22 23 22 22 22 21 20 19 18
26 16 12 13 7 2 4 5 6 8 9 9 10 10 11 11 11 10 11 12 12 12 13 15 18 21 23 25 24 23 21 19 18 17 18 21 25 28 29 28 28 26 25 22 21 21 21 21 21
12 12 9 2 2 4 6 7 7 8 8 8 8 9 9 10 10 10 11 13 11 11 12 14 18 20 20 18 17 16 17 17 17 18 24 32 36 38 40 42 42 43 49 54 54 51 41 31 27
3 3 3 4 6 6 7 7 7 8 9 12 13 17 15 12 14 15 15 13 12 13 16 15 14 14 12 12 13 14 15 16 17 21 31 36 34 33 36 40 44 46 50 51 52 53 54 54 53
4 5 7 8 9 10 11 12 11 11 13 12 12 12 10 9 10 10 11 10 10 9 9 8 9 10 10 11 13 14 18 20 21 24 28 32 36 44 49 48 49 50 50 49 47 49 54 54 53
7 8 9 10 11 10 10 13 16 14 11 11 10 9 9 10 11 10 8 8 7 8 8 9 10 11 13 16 20 26 33 37 39 41 42 43 44 46 48 52 53 52 49 46 42 41 41 43 48
7 8 9 9 9 10 11 12 18 17 12 11 10 10 10 11 12 13 12 11 10 11 12 18 23 26 32 34 38 43 43 40 37 36 40 43 42 42 43 44 45 44 42 40 38 38 41 40 39
12 10 10 9 10 14 13 12 14 15 13 11 11 12 13 15 17 18 20 22 25 27 27 32 40 44 44 45 41 37 34 35 36 41 45 44 41 40 41 41 40 40 41 42 42 40 40 40 40
14 18 16 16 16 15 13 11 10 11 12 14 15 16 16 18 20 23 26 29 29 34 41 50 48 43 34 34 37 33 35 43 49 54 56 52 46 43 44 44 40 38 39 41 41 43 42 43 42
20 18 16 13 13 13 16 14 15 16 14 15 16 17 20 25 27 26 26 24 27 34 40 38 35 30 26 30 37 43 44 53 59 57 53 50 45 40 35 34 35 36 37 39 39 39 39 39 39
20 19 17 15 17 15 15 15 14 15 14 17 21 24 30 31 29 27 29 29 33 36 36 36 39 38 42 47 52 57 61 64 63 55 48 41 36 31 28 27 28 29 27 32 33 31 35 42 44
15 16 18 17 17 20 18 16 17 19 23 26 29 31 31 28 28 27 26 32 44 43 44 49 46 50 59 63 61 58 55 55 52 41 35 28 27 30 32 32 32 36 38 40 45 45 36 34 42
12 12 12 14 14 15 17 17 18 19 20 24 28 30 30 31 32 31 36 40 42 50 58 63 64 70 62 56 54 52 42 33 32 32 31 39 43 41 37 39 39 39 37 36 38 42 42 38 37
12 13 11 9 9 14 17 17 16 17 21 24 26 28 32 33 38 40 42 50 57 60 61 61 63 60 54 52 49 43 38 38 43 40 33 35 48 47 48 44 42 39 36 33 35 36 34 28 21
14 12 11 11 9 10 16 16 14 16 22 26 23 24 30 37 40 47 52 55 55 52 50 51 57 56 51 48 45 45 50 43 36 36 35 39 40 38 39 45 46 45 44 45 36 14 7 7 8
22 18 17 15 12 14 16 17 16 22 23 26 29 35 38 42 45 45 47 49 51 55 59 61 58 54 54 50 45 35 32 35 40 59 60 66 83 67 74 90 81 61 44 18 11 10 10 7 9
22 24 22 18 14 17 19 21 23 24 26 28 34 37 41 45 48 49 50 52 52 49 48 47 40 37 34 37 37 36 39 41 44 49 53 64 90 93 93 85 72 31 17 11 7 5 4 5 5
29 29 26 21 18 20 21 22 22 29 36 35 34 42 44 46 50 50 47 44 40 36 36 34 35 37 37 37 40 45 51 52 60 71 80 99 100 100 96 72 40 45 36 21 9 8 7 6 7
36 31 30 29 27 26 26 27 33 39 38 40 45 47 47 48 44 37 35 36 34 34 33 35 37 41 44 48 52 55 60 64 68 68 67 69 72 93 82 73 58 54 61 51 37 8 6 8 5
32 30 29 30 30 29 32 32 46 52 49 42 44 45 43 38 34 35 34 31 35 37 39 45 48 49 52 52 50 57 63 65 70 72 74 59 68 79 95 88 87 84 65 32 9 7 19 10 33
39 38 37 35 32 31 30 35 50 46 42 39 39 35 34 36 39 41 42 44 46 47 47 46 47 44 42 45 49 54 56 70 69 44 62 66 66 73 80 84 66 25 11 11 21 34 72 96 100
32 33 34 34 31 30 32 35 48 49 44 40 43 44 47 49 48 46 51 49 44 42 42 42 41 42 41 42 41 36 41 53 36 37 70 92 100 71 34 24 12 12 27 62 99 100 100 100 100

GFSSGP_500_rhum_021.txt.gz
RH
31 25 21 13 9 7 70 50 20 6 5 4 3 3 4 14 14 32 89 39 32 32 28 30 26 12 20 27 38 32 20 18 18 11 10 12 14 16 18 19 22 16 14 12 16 23 20 20 13
23 18 11 6 4 71 95 14 75 32 3 3 3 6 8 14 22 26 26 20 12 20 42 14 17 20 25 27 18 15 13 10 12 11 10 10 11 15 22 17 24 18 8 7 6 11 17 14 8
14 10 9 3 52 65 94 32 8 3 3 3 4 9 16 16 17 15 8 6 13 26 10 22 20 16 20 24 19 17 16 16 16 16 13 11 12 14 15 9 14 22 26 24 15 5 5 6 6
4 3 3 2 76 68 39 14 2 4 5 6 7 12 17 9 6 6 7 8 8 12 23 22 19 18 22 23 25 23 19 16 7 4 4 4 6 10 12 14 12 14 13 14 15 14 12 13 16
1 1 22 72 42 22 51 8 6 57 21 10 22 11 6 6 7 9 12 14 17 19 15 10 4 4 6 8 8 6 4 4 5 6 7 8 7 5 5 5 5 5 5 5 5 6 6 6 9
2 11 74 90 62 6 5 7 8 29 12 8 6 6 6 7 9 9 8 9 10 6 3 3 4 4 4 5 6 6 7 8 9 9 10 11 10 10 9 9 9 10 10 10 10 10 10 10 9
3 88 86 97 12 8 8 13 13 10 7 6 7 8 6 4 4 4 5 4 5 7 8 7 8 6 6 7 7 8 9 10 11 12 13 14 15 16 18 20 21 22 19 16 13 12 12 12 13
8 86 91 60 42 13 18 20 12 8 7 9 8 4 3 3 3 3 4 5 7 10 11 8 7 7 8 9 9 9 11 12 13 13 13 14 16 22 27 32 35 36 36 35 34 32 31 24 15
13 57 65 48 44 19 10 6 4 3 4 5 3 3 4 4 4 5 8 8 9 10 9 8 7 7 8 9 10 10 10 10 11 11 12 15 19 22 28 34 35 35 37 39 41 42 43 43 46
28 56 58 23 18 7 4 4 5 5 6 6 5 5 5 5 6 7 8 8 8 8 7 7 8 9 9 8 7 9 10 12 14 19 26 34 39 41 42 43 42 45 46 47 49 51 51 50 50
38 66 14 8 4 2 3 6 7 7 8 8 8 7 6 7 7 7 6 7 8 8 8 9 9 9 7 8 10 16 21 24 30 37 40 42 42 41 38 35 39 42 44 44 45 47 50 51 53
25 13 4 3 4 6 7 7 8 8 8 8 9 8 8 7 7 7 6 6 7 8 8 9 10 11 13 18 26 31 34 35 36 38 41 43 42 38 39 41 42 43 45 44 43 42 43 43 42
6 3 3 4 5 6 7 7 8 9 10 11 10 10 9 8 8 8 9 11 13 16 18 20 22 25 27 29 29 34 38 39 43 46 45 46 45 45 45 45 46 46 45 44 43 44 43 43 44
3 3 5 6 7 7 8 10 12 12 11 10 9 9 9 11 11 13 14 17 20 24 26 29 34 33 28 28 33 38 43 40 41 43 45 45 45 43 40 43 46 46 44 44 42 39 37 36 36
8 9 10 11 12 11 13 12 12 13 12 9 10 11 14 15 15 15 18 23 27 32 36 37 34 32 33 37 45 45 42 43 41 42 42 42 41 41 43 45 43 39 35 31 30 27 24 22 20
10 11 39 13 11 11 13 90 19 13 10 10 15 14 17 18 21 21 24 28 31 32 32 33 35 37 46 48 49 51 49 46 44 44 43 45 46 47 47 44 38 30 26 24 22 20 19 21 24
16 79 36 14 11 11 14 76 18 13 14 14 16 17 18 21 21 27 30 31 31 30 36 39 40 42 46 47 51 54 54 50 47 45 43 45 46 47 42 38 37 31 29 30 28 27 26 30 37
68 37 18 30 15 14 13 16 13 14 14 14 16 19 22 26 28 29 27 29 30 37 47 51 51 52 55 50 55 56 57 52 50 48 50 51 47 44 38 33 32 35 32 36 40 34 33 27 27
21 21 22 21 20 18 17 18 12 13 12 14 17 21 27 32 31 28 36 36 38 49 57 56 55 57 56 61 69 66 64 58 58 56 50 51 43 34 31 31 32 33 32 30 35 36 35 36 39
16 15 16 17 18 20 19 19 18 19 20 23 25 27 29 28 27 30 33 40 51 60 62 60 59 63 69 72 81 84 72 65 59 53 44 35 32 33 35 36 36 33 37 41 42 41 38 38 42
14 13 12 12 12 13 15 19 16 18 20 22 22 23 26 24 27 32 37 44 54 61 61 64 66 66 66 74 69 76 69 55 44 37 38 34 37 43 46 47 48 56 50 42 39 37 36 33 35
16 16 14 13 13 54 13 96 58 28 21 23 26 25 27 29 31 36 43 50 55 62 65 62 57 55 60 63 58 58 44 35 35 36 38 48 50 52 52 50 44 45 41 37 36 33 34 32 28
22 21 21 22 23 21 20 20 86 56 26 24 26 28 30 30 36 40 44 46 52 60 54 52 56 59 53 42 38 36 36 42 45 50 54 58 58 58 49 39 34 34 32 28 26 25 26 37 41
13 14 19 20 23 29 43 24 99 82 35 30 25 28 29 29 31 38 43 45 48 53 57 58 52 41 35 42 41 42 46 52 55 56 56 56 49 40 35 34 34 35 34 31 30 30 32 33 37
18 21 28 29 31 76 41 28 50 29 35 32 30 28 31 36 41 48 52 52 52 53 48 44 43 46 41 38 43 51 54 54 52 46 43 40 40 40 39 42 40 36 33 29 27 27 27 30 27
28 31 32 35 38 59 29 43 31 37 35 35 36 35 38 52 54 53 55 53 50 49 49 51 47 44 46 51 52 52 50 42 40 41 42 47 44 44 46 41 35 29 28 27 26 26 38 63 80
34 35 37 36 32 32 36 36 37 38 38 40 41 46 47 53 55 56 56 54 54 49 45 43 48 51 51 46 43 44 45 45 45 52 66 65 70 62 45 34 29 24 24 74 100 100 99 46 16
34 32 34 33 35 35 86 62 99 54 40 34 36 45 55 53 58 58 57 54 49 50 53 52 51 49 47 44 43 45 49 56 63 68 81 82 91 64 45 24 14 13 31 83 81 44 17 21 25
38 41 46 44 42 42 38 47 53 58 58 61 60 59 60 62 60 60 58 58 56 53 50 49 47 46 46 47 48 50 51 54 57 71 90 97 65 43 16 11 11 14 16 16 16 18 33 47 68
42 45 44 45 48 45 53 52 49 59 65 58 57 58 64 66 65 58 56 55 52 50 48 50 49 47 47 50 50 52 57 69 83 94 72 56 33 12 11 9 10 14 18 29 53 77 86 91 93

GFSSGP_500_rhum_024.txt.gz
RH
40 31 25 16 19 18 44 98 97 62 58 22 5 4 5 5 18 28 55 78 69 22 26 37 31 17 18 24 19 13 9 7 11 14 14 13 11 11 12 15 16 20 17 9 8 8 15 16 18
24 16 11 9 6 23 97 100 84 39 19 8 4 4 4 5 6 11 18 17 13 11 18 15 13 16 15 16 16 14 13 15 14 12 7 6 8 8 8 8 9 13 15 19 30 15 5 7 9
54 46 14 10 60 61 94 97 61 44 28 3 4 3 3 5 4 10 10 8 6 7 8 12 18 17 14 16 16 15 14 9 4 3 4 4 5 7 8 8 7 7 9 11 14 13 10 7 6
10 15 3 36 86 96 97 89 46 42 6 5 9 9 8 7 6 5 5 7 8 10 12 15 9 4 4 5 7 7 5 4 4 6 7 7 6 5 6 6 6 6 5 5 5 5 6 6 7
2 2 14 75 97 86 92 69 69 19 64 48 18 7 10 5 5 6 8 8 8 9 8 3 2 3 4 4 4 4 4 6 7 8 9 9 9 9 9 9 9 9 9 9 9 8 8 9 8
24 10 70 92 81 85 78 48 18 55 97 40 9 6 5 5 5 6 4 4 6 3 3 3 5 5 6 6 7 7 8 8 9 10 11 12 13 14 17 20 21 22 20 19 17 14 11 10 10
12 28 69 94 84 68 16 8 25 96 46 9 6 4 5 4 4 4 4 4 4 4 5 5 6 6 7 8 8 8 9 10 11 11 12 12 13 14 19 25 30 32 31 31 31 30 28 28 19
56 83 84 96 90 73 20 17 14 21 7 8 6 3 3 3 3 4 4 5 6 6 6 5 6 7 8 9 9 10 9 10 9 9 10 11 13 16 22 24 28 32 34 34 37 40 41 40 38
50 95 95 95 98 67 22 16 15 8 7 6 5 3 3 3 4 4 5 6 6 6 7 6 7 7 8 8 8 9 10 9 10 12 14 21 27 36 42 40 40 42 40 40 42 42 42 45 47
62 58 65 65 61 36 12 6 4 3 4 5 4 4 5 6 6 6 6 7 7 7 7 7 7 7 7 7 8 9 12 17 20 26 32 38 38 40 37 37 36 37 35 36 40 43 43 42 42
72 70 59 54 31 9 5 4 5 5 5 5 6 6 7 6 6 6 7 8 6 6 6 8 9 11 12 15 19 21 24 28 33 39 38 37 36 38 38 36 39 40 43 41 43 41 42 41 38
75 72 61 19 11 4 3 6 7 8 6 8 8 8 8 8 7 7 6 6 8 11 14 15 18 22 26 26 27 30 35 40 39 38 42 40 40 40 38 39 39 37 36 38 41 41 40 38 38
32 32 10 5 3 5 6 7 8 8 9 12 12 9 8 8 8 8 9 11 12 14 18 23 22 28 24 24 31 38 41 43 41 39 42 40 42 46 49 48 47 46 43 41 40 38 36 36 34
7 3 3 4 5 6 7 8 9 11 12 14 12 10 11 11 12 13 15 16 18 19 18 20 19 25 29 33 38 37 42 42 41 43 50 51 48 48 47 46 44 43 40 31 26 23 22 20 18
3 5 7 8 8 8 9 9 13 10 13 11 11 14 15 14 16 14 18 18 20 26 22 30 61 34 36 45 45 44 45 47 42 40 43 40 42 43 45 45 42 37 30 23 20 21 20 20 20
8 10 38 16 12 11 12 38 60 22 10 12 12 15 18 20 18 15 15 22 22 27 33 79 23 24 34 43 46 47 48 52 46 48 43 38 50 47 48 40 35 28 26 25 25 25 24 23 23
27 92 91 52 26 12 13 76 96 22 15 14 18 19 19 23 21 23 13 25 29 30 31 27 29 35 46 54 64 60 57 55 51 56 50 46 53 41 44 36 34 31 30 31 31 30 31 30 30
97 66 76 50 10 12 14 26 99 11 17 16 21 22 26 21 33 22 25 31 26 33 29 38 40 59 78 72 67 67 62 63 63 72 57 50 50 37 34 30 30 29 31 34 35 34 30 30 27
64 52 50 83 15 19 18 21 25 14 17 15 17 22 32 23 24 24 30 29 31 36 48 49 67 76 77 72 75 74 66 62 59 56 46 46 31 34 32 30 31 33 35 37 34 30 27 24 27
43 28 38 21 18 20 21 30 14 17 23 19 20 24 24 24 29 32 31 30 34 42 52 65 73 91 90 77 65 62 61 61 60 50 40 40 33 36 40 40 40 35 34 32 28 26 25 26 28
18 17 14 19 13 16 17 28 15 15 26 25 22 24 26 24 26 28 33 40 48 56 63 73 77 76 87 73 56 59 60 52 42 40 42 42 46 48 44 42 38 32 29 32 30 30 31 32 34
17 14 16 16 17 34 45 83 92 69 52 42 28 27 25 26 27 27 33 39 48 58 70 72 57 59 66 63 59 49 43 44 49 46 46 47 49 47 47 42 38 36 36 36 38 38 40 39 39
21 20 20 21 21 26 42 49 100 64 50 45 52 30 29 31 29 33 37 41 47 52 54 56 59 56 49 51 47 51 50 48 49 49 44 41 40 41 44 46 44 44 44 49 45 47 50 40 38
14 13 12 12 17 21 42 97 97 99 90 86 45 30 30 30 33 39 42 41 44 56 57 59 55 53 50 46 49 47 49 47 44 44 43 43 44 46 50 53 58 58 63 73 69 64 70 44 37
23 24 26 70 67 71 77 83 81 68 99 86 46 36 35 37 46 47 48 49 49 49 52 54 55 53 50 50 48 44 40 41 41 40 43 44 45 48 53 55 70 79 83 82 87 74 38 21 9
24 30 30 39 68 61 68 66 62 52 70 78 49 46 47 47 44 39 42 49 52 57 56 54 56 59 58 51 45 43 42 44 40 42 42 44 50 52 60 70 77 75 73 52 34 15 6 6 7
34 35 35 36 37 36 38 76 96 91 93 82 62 50 36 38 49 55 55 60 61 62 65 62 57 52 46 46 50 48 42 38 32 43 50 52 55 61 76 86 79 52 26 9 8 6 6 7 10
36 36 38 36 36 34 68 100 99 82 67 72 53 53 46 59 57 59 64 65 67 62 57 48 42 42 40 36 30 24 23 30 47 54 50 52 57 57 46 31 18 10 8 6 7 8 12 16 22
33 35 39 41 46 46 46 58 67 76 80 86 76 73 63 69 68 73 73 65 58 48 42 39 32 29 26 24 25 32 44 51 56 52 53 53 40 26 21 15 12 10 8 10 16 20 32 49 75
35 36 36 36 44 43 44 44 56 60 70 83 71 58 70 69 70 70 62 47 38 41 37 30 24 26 30 33 38 54 61 53 57 54 41 28 24 20 19 17 14 13 20 27 49 64 72 77 77

GFSSGP_500_rhum_027.txt.gz
RH
91 81 82 72 28 49 96 90 96 99 88 87 58 53 63 31 30 26 76 75 68 35 19 16 10 14 14 14 14 12 9 9 12 10 7 6 7 8 6 7 8 8 9 9 12 23 9 6 14
82 88 56 24 19 54 83 96 94 97 96 83 39 36 18 11 16 8 9 56 22 17 12 7 8 16 16 14 13 12 11 10 6 3 4 4 4 4 5 5 5 5 5 7 10 10 15 9 4
29 37 37 32 70 86 73 96 99 94 83 69 39 5 4 6 10 8 6 33 17 8 7 9 11 10 6 7 8 8 7 4 4 6 6 7 7 7 8 8 8 8 8 7 6 6 6 7 9
90 50 68 90 80 84 82 89 94 88 87 68 21 4 8 17 12 8 12 8 7 8 10 9 3 2 3 3 4 4 4 6 7 7 8 8 9 9 9 8 9 10 10 11 10 10 10 10 7
13 36 82 78 96 93 100 90 88 98 85 49 21 24 11 8 6 5 6 6 8 8 6 2 3 4 4 4 5 5 6 6 8 8 10 11 12 13 14 15 16 16 18 17 17 17 16 12 10
16 37 73 73 96 97 87 79 100 74 68 41 20 8 6 6 6 5 8 5 6 3 3 4 4 5 6 6 7 7 8 9 10 11 11 12 13 14 15 19 24 27 29 29 27 26 24 25 25
59 86 73 73 97 74 96 99 85 58 60 8 7 6 5 4 4 3 4 3 3 3 4 5 5 6 6 7 8 9 9 9 9 9 9 10 10 12 14 17 21 23 25 26 27 28 29 30 33
97 94 87 82 96 90 91 87 48 22 11 13 6 6 4 4 4 4 4 4 4 4 5 5 6 6 7 7 7 7 8 8 9 9 11 13 18 23 28 35 39 38 34 34 32 30 34 36 35
93 96 98 84 94 98 93 80 19 11 13 8 4 3 3 3 4 4 4 5 5 5 5 6 6 6 6 6 7 8 10 14 18 21 23 27 31 35 36 39 39 37 35 37 37 39 40 40 40
81 83 100 81 92 99 67 30 18 8 4 4 6 4 3 3 4 5 5 4 5 6 6 7 7 7 8 11 16 20 21 22 20 24 28 29 32 33 34 33 37 36 36 36 37 37 36 37 40
69 69 85 96 82 64 27 9 4 4 4 5 5 5 4 5 5 5 5 6 6 6 7 10 13 16 20 23 17 19 19 29 29 28 25 26 31 33 34 34 37 40 41 45 44 41 39 39 40
70 71 65 67 64 47 7 5 5 4 6 6 7 8 7 6 6 6 5 6 8 12 14 15 16 20 19 15 12 14 14 18 26 33 32 35 41 44 43 44 42 37 38 37 36 38 39 32 29
53 38 56 62 50 8 4 6 8 8 7 6 7 8 8 8 7 8 10 10 13 14 15 14 13 18 23 43 20 22 26 25 24 36 40 43 46 48 48 43 42 39 38 38 37 35 28 18 17
22 21 12 6 5 6 7 8 8 10 10 10 8 7 8 9 10 12 11 9 11 13 23 19 30 63 66 71 48 43 40 42 38 42 47 42 42 48 43 43 43 40 38 35 31 27 20 20 19
3 4 5 7 10 12 10 12 8 11 12 14 14 9 9 11 11 10 11 11 14 27 16 17 71 94 95 86 66 55 65 62 50 39 36 36 38 43 45 44 36 28 25 24 21 18 19 19 20
10 11 15 27 14 13 13 10 11 18 17 12 12 12 13 11 9 9 8 12 27 20 15 12 26 70 98 88 77 82 73 69 58 40 32 37 43 51 49 41 28 23 24 26 24 23 22 22 22
94 100 86 80 26 13 15 14 10 15 21 14 13 11 15 24 11 8 12 22 26 28 26 16 34 49 76 70 74 60 55 52 54 44 40 40 42 41 34 34 31 28 28 29 29 29 28 27 27
78 94 98 79 19 22 22 23 47 10 13 31 28 30 11 11 12 15 20 24 30 36 39 19 14 26 42 36 37 44 49 59 54 48 48 47 38 32 37 37 36 34 32 32 36 34 33 31 27
80 83 80 23 15 20 19 29 32 17 19 28 24 20 19 21 22 24 24 26 50 68 58 36 26 26 23 25 38 48 61 58 54 49 43 37 37 40 38 36 39 39 36 35 34 32 30 29 31
77 72 57 16 18 21 20 25 26 21 28 29 23 29 30 30 32 33 39 49 63 58 40 48 56 64 44 48 51 63 64 59 54 50 47 46 42 41 42 40 37 35 35 35 33 30 27 30 33
20 26 37 20 14 21 21 22 20 17 30 41 64 55 34 31 39 42 41 43 39 36 42 50 59 56 53 56 58 56 55 52 53 50 46 48 50 45 40 37 35 31 26 23 21 24 30 34 46
14 16 21 21 21 24 21 44 26 21 22 46 59 51 43 60 38 45 46 44 41 49 56 49 46 57 63 61 57 56 54 53 50 52 50 48 48 46 42 40 34 30 31 31 29 31 36 44 43
23 22 21 20 20 22 25 38 81 70 48 47 54 61 77 49 33 36 42 41 43 43 45 53 58 54 52 55 59 56 56 58 53 46 47 47 45 40 34 32 31 35 37 39 41 41 48 65 70
14 12 12 12 12 13 30 55 82 86 72 64 70 93 83 90 39 41 42 42 43 46 53 63 66 62 56 53 58 56 46 40 35 28 26 25 28 32 36 38 42 46 46 48 53 60 60 56 50
17 18 19 24 55 45 51 73 98 99 87 66 53 53 59 46 46 51 42 34 33 48 59 63 66 66 67 62 48 40 29 20 20 23 25 27 31 37 40 42 49 52 51 47 41 32 20 10 6
17 20 23 25 27 35 54 44 68 53 62 75 79 68 70 79 76 61 59 61 60 60 62 65 68 61 48 45 34 27 26 25 23 27 33 35 40 43 49 50 46 42 32 17 8 7 6 7 6
27 30 31 32 33 36 49 47 52 76 86 100 99 98 83 56 61 66 63 61 61 69 71 64 47 40 29 26 24 22 22 21 23 34 39 46 54 48 44 35 23 12 9 9 9 9 9 9 10
32 34 34 35 35 40 50 53 56 54 81 75 62 67 66 58 68 75 80 81 79 68 54 48 38 30 27 25 25 22 25 27 33 35 41 46 39 29 15 9 10 14 15 14 15 14 15 20 23
29 26 27 28 27 34 41 52 53 62 71 71 74 67 64 64 86 92 78 62 52 45 38 33 31 26 24 25 26 30 27 26 31 42 38 23 11 8 12 15 16 19 24 23 19 21 24 32 66
28 26 25 27 34 39 42 50 70 67 70 70 83 99 76 79 85 57 50 49 46 40 36 33 29 28 30 29 30 31 29 30 31 24 13 10 10 14 17 22 23 23 22 22 27 29 50 83 77

GFSSGP_500_rhum_030.txt.gz
RH
58 91 87 52 41 87 80 84 68 70 81 75 75 79 75 77 71 69 51 37 89 93 58 22 10 8 10 14 14 12 10 7 10 8 3 3 3 4 5 5 5 5 6 6 7 11 13 14 7
96 70 90 89 88 85 88 80 79 97 88 89 93 93 98 98 74 55 33 46 35 38 31 10 6 7 13 12 10 10 8 9 4 6 7 7 7 8 8 8 8 8 7 7 7 7 6 6 8
27 91 43 45 50 74 86 90 77 69 79 94 96 80 76 55 44 20 18 32 21 77 10 6 6 8 5 4 5 6 5 4 6 7 7 8 10 11 10 10 9 10 9 8 9 9 9 9 7
88 63 77 40 41 72 93 83 67 93 83 66 70 82 76 24 7 8 7 14 19 9 6 7 6 2 3 3 4 4 5 6 7 7 8 10 12 14 14 15 15 15 14 13 12 12 12 10 10
45 26 76 80 77 91 98 95 68 79 82 71 64 95 58 26 16 15 11 9 6 7 7 6 2 3 4 5 5 5 6 7 8 9 10 11 12 13 15 17 19 21 22 24 24 22 22 22 23
86 93 93 96 92 98 92 89 65 61 63 62 77 62 33 8 5 5 6 6 7 8 5 3 4 4 5 6 6 7 8 9 10 10 11 10 10 10 11 11 13 17 20 24 25 26 26 26 28
48 97 92 59 76 89 90 96 79 69 49 47 80 52 11 5 5 5 6 5 5 3 3 4 5 6 6 6 7 8 8 8 9 8 9 9 10 11 15 19 23 30 32 31 27 25 26 28 31
67 90 88 77 94 79 94 89 73 63 64 24 15 8 4 5 4 4 4 3 3 3 4 5 6 6 7 7 8 8 9 9 10 15 18 21 21 23 24 26 25 29 30 29 27 28 29 31 36
91 94 87 76 81 94 97 94 90 78 73 14 8 5 3 3 4 4 4 4 4 5 6 5 6 7 8 9 9 11 17 20 21 25 25 23 23 23 24 25 26 28 30 27 24 26 31 33 33
95 82 75 87 98 93 100 87 81 73 26 7 8 3 3 3 4 4 4 5 4 6 6 6 7 8 8 12 21 22 25 20 18 20 25 28 33 33 36 38 37 36 34 34 34 32 31 33 33
91 89 93 96 100 99 88 69 34 13 4 6 5 4 4 3 4 5 5 5 6 8 7 7 11 14 18 21 24 22 17 16 19 20 28 31 34 34 33 36 35 36 35 35 35 35 34 34 35
76 75 70 84 97 94 64 15 4 6 5 5 5 6 5 5 5 5 6 6 7 9 12 13 16 20 26 29 30 55 34 28 26 20 24 26 33 36 35 34 35 38 36 36 34 34 35 34 34
71 76 70 70 75 62 34 5 7 7 8 9 8 7 6 6 6 7 9 11 12 12 14 18 34 33 50 30 56 60 54 44 40 48 48 48 43 36 36 35 35 36 36 35 30 27 28 28 28
62 65 41 60 59 11 7 7 7 7 8 8 9 8 8 7 9 10 10 9 10 14 26 31 68 67 71 58 72 92 74 53 51 54 52 51 46 40 40 39 39 38 30 26 23 21 21 21 20
48 26 8 12 10 10 14 12 12 9 8 8 7 6 8 10 11 11 10 13 12 9 12 16 29 57 77 98 69 76 91 47 52 67 53 53 48 48 49 45 38 32 28 27 28 28 27 26 26
6 7 31 30 19 13 13 11 39 21 12 8 8 8 7 7 7 7 10 14 16 8 11 16 38 75 78 47 57 74 68 49 53 50 48 52 51 50 43 42 38 36 35 34 32 32 31 30 29
36 14 28 22 34 32 16 13 17 17 14 10 9 7 8 9 9 10 13 16 12 16 16 34 71 73 71 65 48 52 48 59 52 51 50 48 43 42 42 43 42 42 43 44 42 40 36 35 33
62 64 22 32 37 46 27 15 11 9 11 15 18 12 13 14 17 19 24 35 26 38 56 83 98 69 56 46 40 47 59 51 56 55 53 50 49 46 47 51 52 48 41 36 33 31 30 28 20
83 52 45 54 32 40 38 27 16 14 14 20 24 30 28 26 27 24 24 36 68 68 77 90 67 69 38 34 39 53 65 62 62 58 52 51 50 56 55 44 34 30 27 24 20 18 16 16 16
92 89 76 38 42 36 23 24 25 25 20 18 20 26 32 52 48 33 34 66 64 72 83 52 47 39 34 40 50 66 66 66 61 55 57 63 61 51 40 30 21 16 16 15 15 16 17 17 17
77 82 59 52 42 31 18 17 16 15 16 21 46 54 98 99 87 70 67 65 71 61 49 49 45 42 47 53 62 65 66 66 65 69 70 58 44 32 23 19 18 17 16 16 17 18 19 20 19
23 26 41 35 20 22 22 21 22 20 18 22 24 39 54 99 95 85 64 66 56 46 44 46 51 54 57 61 63 69 70 75 79 70 51 33 25 24 23 23 23 23 26 24 23 21 20 18 18
22 21 23 23 22 22 23 28 31 26 23 23 36 98 100 99 97 100 100 73 49 50 50 48 49 48 54 66 71 73 76 59 37 28 26 30 28 28 26 24 25 26 27 26 25 25 29 36 37
22 18 15 13 13 13 17 19 21 32 45 54 72 100 99 96 86 96 79 69 72 74 60 58 61 65 66 71 76 52 34 26 24 22 26 25 24 24 24 24 25 25 24 23 24 23 20 22 22
13 17 17 17 22 51 44 47 48 59 84 89 98 69 51 45 59 69 85 71 71 65 64 65 64 69 70 53 37 28 26 26 26 26 24 24 25 27 26 23 23 22 18 13 9 8 8 8 8
18 22 26 28 30 34 30 44 78 77 47 95 46 49 62 73 88 96 70 65 62 65 71 74 62 43 37 30 29 27 27 31 30 27 27 27 29 26 24 22 15 10 9 9 9 9 9 9 11
30 32 32 32 34 38 35 35 35 34 38 65 96 99 98 94 74 61 54 72 73 73 58 42 38 34 34 32 34 36 35 29 24 26 28 32 29 27 18 10 9 9 9 8 8 10 14 16 18
29 27 24 24 25 28 28 30 34 46 51 52 62 68 69 63 50 58 78 82 66 52 52 49 41 38 36 37 32 26 25 26 28 31 34 32 22 12 9 9 8 8 9 17 29 21 20 21 21
29 23 23 23 22 21 25 32 38 43 43 43 48 48 49 54 68 85 94 61 54 53 49 44 42 38 31 26 28 28 29 32 39 37 31 15 10 10 8 8 11 16 36 33 26 27 30 32 33
25 24 23 24 24 23 25 31 29 34 38 37 40 45 55 73 92 89 55 56 57 55 50 41 33 30 30 33 31 35 35 39 39 34 21 14 10 8 9 29 43 87 80 90 70 54 41 38 46

GFSSGP_500_rhum_033.txt.gz
RH
79 96 95 95 91 70 41 56 57 60 60 62 69 89 86 90 94 93 90 75 34 47 83 96 59 8 6 7 15 13 11 8 8 5 5 6 7 8 8 9 10 10 10 10 10 10 9 8 7
74 75 95 95 60 71 49 65 73 76 64 57 66 88 94 89 82 96 86 50 44 67 78 37 12 5 6 9 8 7 8 7 5 6 7 8 9 9 10 10 11 11 11 10 10 11 11 12 12
92 58 84 87 57 43 68 84 96 78 86 82 89 82 77 93 93 64 42 43 56 49 57 26 6 6 5 4 4 4 5 5 6 6 7 8 10 12 12 12 13 13 13 11 12 12 11 11 11
95 90 48 74 85 92 82 90 95 98 96 94 92 97 96 84 79 74 72 28 14 20 13 6 6 3 3 4 4 4 4 5 6 7 8 10 11 13 14 16 16 16 18 18 19 19 19 19 20
46 57 85 70 62 86 84 87 84 96 94 94 97 95 92 92 82 58 45 21 14 11 6 6 4 3 4 4 5 5 6 6 7 8 10 11 12 12 12 13 14 16 18 21 23 26 25 24 24
79 82 72 96 56 67 88 77 78 91 93 95 97 95 86 75 64 41 12 16 7 5 6 5 3 4 5 6 6 6 7 8 9 10 10 10 10 10 10 11 12 16 21 26 28 29 29 29 30
87 38 76 96 85 80 78 96 97 96 97 96 94 74 50 40 34 10 5 6 5 6 6 3 4 5 6 6 7 8 9 9 8 8 9 12 14 19 21 26 27 28 30 28 28 28 28 24 24
86 84 74 82 96 92 91 98 97 97 96 95 89 26 33 17 6 6 6 5 5 5 3 4 5 6 6 7 8 8 8 8 12 16 19 21 22 21 21 23 25 24 23 23 25 25 25 25 30
90 97 94 74 90 83 97 95 90 95 94 92 66 13 8 4 4 4 5 5 3 3 4 5 6 7 8 7 8 8 13 18 18 19 20 21 21 26 29 32 33 37 36 35 33 30 28 29 29
98 98 94 73 83 85 75 96 88 60 30 25 15 8 4 3 4 4 4 4 5 5 6 6 7 7 8 9 11 17 21 15 19 19 20 22 28 28 33 34 35 35 34 35 36 33 31 30 31
85 99 96 98 86 91 93 84 54 15 5 4 6 4 3 3 5 4 5 6 6 6 6 7 8 11 14 16 20 19 21 36 46 30 28 27 30 35 35 40 34 34 34 35 36 36 39 36 34
99 98 97 100 96 91 93 64 29 6 6 6 5 4 5 5 6 6 6 8 8 7 8 12 14 17 21 27 43 31 52 77 76 73 53 48 51 53 50 44 32 32 31 33 38 37 36 28 26
89 90 84 85 80 90 84 38 8 10 9 10 8 7 7 8 8 8 8 9 11 12 14 15 22 37 47 45 71 59 53 91 94 87 44 42 35 31 34 38 39 40 39 38 34 29 28 27 26
74 77 70 58 65 67 23 6 9 10 10 10 11 8 7 7 8 9 11 14 17 16 16 20 33 30 86 78 75 74 54 45 53 63 54 40 30 39 43 43 39 36 34 32 32 31 30 30 31
54 67 52 43 47 14 7 9 13 10 9 10 9 7 6 7 8 11 16 19 18 16 15 15 20 43 53 76 80 68 45 34 39 43 51 44 39 47 46 42 39 40 40 40 42 44 44 44 42
47 25 49 15 8 11 11 11 18 16 12 8 6 6 6 8 9 13 15 14 17 16 11 32 34 64 79 85 87 62 36 29 32 48 49 42 48 52 47 48 47 51 55 53 45 34 26 22 19
17 30 13 21 31 14 12 13 25 19 22 8 9 10 10 10 9 11 14 17 27 27 29 40 84 87 93 98 90 49 38 35 38 47 41 47 54 51 53 59 60 50 32 22 17 14 12 10 10
11 14 19 32 38 20 16 15 9 9 12 14 16 13 12 13 13 14 15 35 25 26 42 74 84 91 97 68 58 44 50 42 58 47 52 58 57 60 65 49 26 17 14 13 13 12 13 11 10
52 19 41 38 26 36 25 13 12 13 13 15 20 20 18 20 22 54 50 40 38 56 95 100 98 99 56 52 54 45 48 47 49 56 64 64 70 66 36 23 19 18 17 16 16 15 14 14 13
66 74 33 39 65 44 25 21 17 16 16 14 14 21 45 54 81 91 77 72 86 99 78 60 43 45 54 47 44 46 47 48 56 66 70 72 52 32 27 25 24 23 21 20 19 18 18 18 16
77 84 75 65 56 39 27 16 15 16 18 23 43 37 73 81 81 68 78 82 86 66 52 60 53 43 41 42 44 49 58 68 77 80 70 42 31 28 30 31 32 29 24 22 22 23 22 21 20
69 66 69 61 47 45 38 22 17 20 27 38 37 34 57 80 83 96 87 83 81 90 74 69 60 54 59 58 63 72 78 86 88 79 61 55 49 44 44 42 35 29 27 26 26 26 25 23 20
21 21 21 20 21 24 27 29 24 22 22 26 44 52 62 82 98 80 90 88 90 87 82 80 72 81 82 67 70 77 93 96 72 60 51 41 40 38 32 26 25 28 30 30 30 28 23 15 11
28 27 25 24 23 20 19 18 13 14 18 29 46 67 92 74 99 96 99 100 98 97 100 83 82 75 76 80 95 89 59 53 47 42 36 27 27 26 23 22 22 25 32 32 23 15 12 11 10
20 16 16 18 18 18 21 30 37 33 46 55 72 45 86 97 67 90 94 96 100 100 96 79 72 80 84 76 51 46 40 37 31 27 27 24 20 18 19 24 33 36 26 18 15 11 9 8 8
18 19 23 24 25 25 26 24 26 30 30 30 33 37 42 82 99 100 100 98 99 95 79 74 71 51 44 41 40 37 31 30 30 24 20 19 17 18 26 31 31 28 24 18 15 12 8 10 12
28 31 28 23 22 21 20 19 24 25 27 32 37 40 77 99 95 60 76 80 65 63 55 59 45 45 45 43 38 35 32 28 22 21 19 18 18 27 34 33 30 25 22 16 9 9 22 38 37
27 24 22 23 22 21 19 18 17 19 21 29 33 38 42 44 51 56 54 60 63 58 48 51 53 50 45 40 35 31 26 24 22 20 18 19 26 36 35 31 28 18 10 9 23 90 81 75 76
29 24 23 22 21 20 19 18 18 16 16 23 31 38 43 46 49 57 59 58 48 49 59 57 56 51 44 37 33 28 26 24 22 21 23 26 29 30 32 29 17 8 12 64 100 100 100 100 98
32 25 23 21 18 18 18 18 17 18 18 16 16 16 20 27 37 46 50 49 55 69 66 63 55 50 42 35 31 29 26 25 24 26 26 28 32 34 26 14 8 8 44 100 100 100 100 100 100

GFSSGP_500_rhum_036.txt.gz
RH
77 91 90 83 90 91 88 91 92 95 77 62 68 83 85 83 96 92 94 88 94 96 50 56 74 57 13 5 9 10 10 9 6 6 6 7 8 10 10 11 12 13 14 13 14 14 14 15 16
83 84 92 77 90 95 79 62 76 70 69 76 96 94 96 97 95 83 86 95 73 69 61 53 39 25 8 7 6 7 7 7 6 6 7 9 11 12 12 12 13 13 13 14 14 14 14 14 14
90 93 82 55 89 92 85 70 65 75 80 80 94 94 97 96 96 94 89 66 84 89 80 18 14 9 6 4 4 4 5 5 6 6 7 8 9 12 14 14 14 14 14 15 16 17 17 17 18
91 84 73 65 72 87 92 96 92 97 87 92 95 92 94 93 96 92 81 69 72 70 45 15 12 6 4 3 4 4 5 5 6 7 7 8 10 12 12 13 13 14 14 14 16 18 20 21 22
91 95 90 87 75 84 62 71 98 87 97 95 98 96 96 95 92 86 70 62 44 30 24 15 6 5 3 4 4 4 5 6 6 7 8 10 10 11 10 10 11 11 12 13 16 20 23 23 24
94 64 71 69 66 78 77 95 94 96 94 96 87 94 82 72 69 70 69 44 18 19 10 6 7 3 4 4 5 5 6 7 8 9 9 9 10 12 14 18 20 20 21 23 24 24 24 22 22
81 47 72 79 80 77 96 96 95 94 87 94 96 90 76 57 38 40 26 10 6 6 6 8 4 4 5 6 6 7 8 8 9 8 9 12 17 20 20 17 18 21 23 25 26 24 21 21 20
74 60 75 69 100 88 90 90 97 97 93 97 87 79 69 44 14 8 7 6 6 7 6 4 4 4 6 6 7 8 8 8 8 13 17 17 16 14 15 18 21 22 25 30 30 27 27 26 25
100 88 100 62 96 98 93 95 94 95 90 79 56 36 23 13 6 4 5 7 6 5 4 4 5 5 6 7 8 8 8 12 20 21 19 19 17 17 20 20 23 25 28 29 31 31 27 27 26
98 94 86 79 85 94 96 96 96 81 25 15 18 24 12 5 4 5 6 5 4 4 4 6 6 7 8 9 9 11 15 24 24 37 53 42 44 36 40 46 48 39 39 33 32 33 32 32 33
93 96 96 96 98 93 97 87 75 55 6 4 4 10 4 4 5 5 6 6 6 5 6 8 8 9 12 14 15 18 22 24 34 75 82 81 76 50 50 43 36 37 35 35 37 37 38 42 39
96 91 98 93 94 98 87 68 69 10 6 6 7 6 5 7 6 6 6 5 6 7 7 9 12 13 15 19 25 30 44 57 35 62 64 78 74 49 46 40 36 37 39 40 40 41 39 35 32
84 89 86 84 87 89 86 73 17 10 9 7 7 8 8 8 7 6 8 7 9 12 13 14 15 17 24 36 41 51 74 74 52 46 48 45 45 48 47 37 33 34 36 37 36 36 37 38 41
94 96 89 80 88 81 75 52 9 13 13 10 9 10 10 10 13 14 16 14 13 14 13 14 17 18 23 20 63 68 82 80 62 37 30 30 41 44 41 34 30 35 39 40 42 45 49 49 45
94 90 93 61 61 66 57 13 9 16 15 14 12 14 14 13 16 20 21 18 18 21 23 23 25 33 47 56 74 90 99 97 59 35 35 31 27 33 32 34 44 45 46 50 52 50 30 16 13
51 67 62 52 42 15 7 11 13 21 20 14 13 12 10 11 13 18 22 21 23 27 20 21 69 80 84 96 98 98 98 94 53 54 43 35 45 37 39 50 52 54 59 51 25 18 16 16 16
56 69 42 29 12 7 9 16 18 26 35 24 17 13 13 14 15 16 16 17 26 38 43 33 68 78 99 98 96 95 96 51 56 64 42 44 42 45 54 54 58 58 37 22 19 19 16 15 14
50 35 19 9 8 11 12 11 19 27 21 22 24 22 19 17 16 18 19 27 45 38 26 43 68 90 97 97 95 69 52 45 41 39 38 41 51 57 60 60 42 29 24 20 18 16 16 16 16
13 24 18 12 13 16 16 18 18 21 23 25 22 20 19 16 18 29 60 52 36 43 62 88 85 97 78 69 64 55 80 46 48 46 51 60 60 62 54 40 30 27 25 23 20 19 19 17 15
17 33 41 47 42 26 37 28 22 19 16 14 13 14 16 15 34 43 52 71 83 92 93 65 43 37 49 70 64 57 57 63 62 62 65 67 66 49 38 32 30 30 28 24 21 18 16 16 15
72 55 52 52 56 45 32 21 25 18 15 14 16 18 19 25 44 55 52 85 86 71 66 65 62 63 60 72 56 60 57 59 65 68 67 55 42 41 47 50 47 40 31 22 18 18 19 19 20
77 57 40 39 39 38 35 32 15 13 17 22 23 23 23 30 31 32 53 74 73 87 73 73 73 86 76 68 71 60 66 74 82 84 70 62 63 60 49 38 27 20 18 16 15 14 14 13 14
35 34 27 24 22 20 21 19 15 18 18 21 22 20 29 39 41 64 90 80 93 63 82 76 71 92 88 76 61 74 85 88 79 59 58 53 41 30 26 22 19 17 16 15 16 17 18 20 25
20 21 23 24 24 24 22 18 12 16 19 21 24 34 42 49 39 64 99 95 74 97 96 93 98 89 78 72 90 95 89 65 55 47 40 32 29 24 22 20 18 18 18 18 22 26 28 32 32
25 24 21 18 16 16 17 17 20 26 30 33 35 37 41 42 42 43 66 83 85 100 99 92 91 89 80 90 85 57 49 46 42 37 34 28 25 25 22 19 18 19 20 26 31 32 34 31 22
17 16 19 19 23 27 25 19 18 21 24 26 30 34 36 38 41 75 74 98 93 67 58 64 79 90 82 63 51 49 46 43 42 36 30 27 28 27 25 26 27 31 35 35 35 35 28 18 9
22 25 30 29 22 20 20 19 18 17 17 20 24 28 34 39 43 48 47 43 48 53 62 78 82 64 51 52 51 50 48 49 39 33 31 31 33 33 31 31 33 37 36 36 35 27 13 7 8
31 31 26 23 22 21 19 17 17 17 16 15 16 17 21 23 28 30 37 43 47 56 62 62 53 54 56 56 59 59 56 40 35 34 34 38 36 34 31 33 39 40 41 36 23 9 7 11 61
30 25 24 23 21 18 16 16 17 17 17 18 19 19 18 16 17 20 26 33 44 54 56 58 69 68 67 68 67 59 42 40 41 39 42 38 35 34 33 40 42 44 38 19 7 8 13 86 100
30 30 26 25 22 18 17 16 16 16 16 16 17 18 21 22 20 19 20 22 30 49 62 72 73 70 70 72 63 47 46 46 44 47 42 40 41 37 48 49 48 33 16 7 8 13 46 100 100

GFSSGP_500_rhum_042.txt.gz
RH
9 6 7 9 36 45 92 86 77 91 94 93 96 82 86 76 65 68 66 87 91 96 93 97 83 54 37 24 11 7 6 6 4 6 7 9 10 12 13 13 12 12 11 11 11 11 12 12 13
15 15 22 27 35 63 84 44 62 60 72 60 84 96 94 77 58 49 82 93 96 95 96 55 52 37 28 16 15 15 6 5 5 6 8 10 11 12 12 12 11 11 10 10 10 10 10 11 11
29 21 25 34 49 70 89 43 46 58 67 79 95 95 92 96 92 95 91 83 96 96 57 53 39 32 33 13 8 6 4 4 5 7 8 8 9 10 11 10 10 10 10 10 10 9 10 11 12
48 38 42 50 61 64 67 64 59 54 70 77 97 95 96 96 98 97 96 96 96 82 66 40 33 31 28 12 6 4 4 5 6 6 6 8 8 9 9 9 10 12 10 8 8 10 9 10 11
68 74 78 66 84 84 81 72 77 72 74 92 96 96 96 95 96 96 96 96 96 95 91 52 34 31 10 8 4 4 5 5 5 5 6 8 9 9 9 13 13 10 9 10 10 10 11 12 14
60 71 85 90 100 91 83 84 92 93 90 87 96 97 95 95 94 92 96 97 97 93 83 49 34 12 12 5 5 5 5 6 6 6 8 9 9 10 14 16 16 13 17 19 18 15 14 14 17
56 81 97 89 95 96 95 91 89 96 98 97 94 97 94 92 93 88 66 74 73 68 50 33 16 15 8 5 6 6 7 8 7 8 9 9 11 16 15 38 42 30 29 33 31 27 24 21 22
57 91 97 99 96 84 97 94 93 97 98 95 96 95 95 90 88 84 41 9 30 25 12 12 15 15 6 6 7 7 7 7 8 8 9 12 19 19 36 64 64 55 53 38 23 20 19 18 20
76 89 100 91 71 76 71 77 88 91 95 96 95 96 87 44 13 14 15 10 10 11 14 16 17 7 6 7 7 7 7 7 8 10 15 24 26 49 63 53 51 59 56 44 38 34 30 24 21
87 96 100 99 95 95 98 96 96 96 97 97 76 23 10 6 5 7 10 15 16 17 18 12 8 8 7 7 7 7 7 9 13 18 25 33 41 47 42 43 39 38 45 54 54 46 34 25 24
99 100 95 64 89 93 95 81 59 46 33 53 13 23 7 5 6 7 8 12 13 13 12 10 8 8 7 6 7 9 14 17 22 35 50 49 67 55 45 37 31 28 30 32 35 37 31 27 30
98 95 77 98 98 97 87 23 10 14 10 9 9 8 9 8 11 11 11 12 11 10 9 9 9 9 8 11 15 20 22 32 41 47 60 69 73 74 59 43 40 39 34 26 25 26 26 28 33
90 94 94 96 96 98 67 23 17 8 9 10 12 11 10 11 14 15 15 15 12 11 10 10 12 14 17 18 22 28 31 37 33 40 62 75 73 97 87 88 69 62 49 32 27 28 30 32 40
90 95 98 96 97 93 66 40 22 15 12 14 15 13 13 15 17 15 14 11 10 13 15 14 17 16 22 31 40 44 52 54 71 82 92 98 98 93 84 66 42 35 34 37 36 40 45 52 56
96 95 98 96 95 76 47 40 15 14 25 25 20 17 16 16 15 17 16 15 14 15 22 37 23 44 68 78 83 85 85 98 98 97 99 100 90 78 65 53 46 52 51 50 57 60 61 60 48
98 98 97 94 81 64 52 36 15 16 31 33 32 26 21 18 17 16 18 17 19 44 38 43 57 90 91 92 92 96 95 96 97 97 97 99 76 56 55 47 50 58 61 62 64 56 42 34 28
91 96 87 87 66 49 36 25 21 16 30 37 51 40 29 23 19 19 22 25 25 30 58 47 52 67 77 94 94 96 98 98 85 95 86 57 64 59 54 53 65 72 68 60 42 34 30 29 28
52 80 56 46 36 28 16 20 26 29 52 76 75 50 35 27 25 22 20 29 36 47 46 50 53 59 57 98 95 94 73 54 65 81 78 72 60 57 63 74 72 56 42 36 33 33 34 33 29
51 68 66 59 57 42 26 36 47 58 64 43 28 29 32 26 21 19 19 20 24 36 39 54 59 66 80 95 73 68 57 79 91 84 68 62 54 55 66 70 52 45 44 43 43 45 37 30 29
67 52 89 83 51 47 38 29 30 32 30 26 25 25 23 20 20 19 18 18 20 22 28 27 23 28 47 58 69 59 67 98 99 98 78 64 69 83 95 87 73 72 66 58 49 38 34 35 35
66 61 97 65 73 70 51 34 31 26 24 20 21 22 26 28 21 20 21 21 30 39 37 42 60 55 51 62 59 62 77 87 85 91 91 85 99 100 100 88 74 63 55 46 39 38 36 34 34
60 46 29 22 53 88 44 80 31 23 24 22 28 30 28 23 20 21 26 45 49 61 43 52 72 76 73 62 54 64 73 81 68 60 66 77 73 73 75 69 62 58 53 42 40 38 36 34 34
72 83 92 81 70 54 26 25 72 17 19 20 19 17 18 19 26 39 56 70 59 31 33 32 30 37 51 47 76 98 74 46 54 70 82 79 74 70 64 63 64 58 46 45 43 40 41 43 43
66 67 52 77 56 32 24 19 50 19 20 16 20 26 28 31 36 38 33 28 23 23 22 20 28 29 29 28 25 27 37 48 59 65 68 69 66 64 64 67 61 50 51 52 49 46 44 48 46
73 55 37 25 23 21 16 15 20 22 20 18 18 18 19 21 22 21 20 17 18 19 20 20 20 20 21 22 24 28 39 53 61 65 63 66 68 72 76 66 55 57 58 50 45 50 55 47 38
49 36 24 25 21 15 19 23 20 17 16 15 14 14 15 15 16 17 18 20 20 20 22 22 22 22 22 23 25 29 36 48 61 69 78 82 84 82 71 63 63 58 44 44 55 54 47 38 34
28 28 28 18 16 26 22 20 17 15 15 15 16 17 15 17 19 22 23 23 23 23 23 23 23 23 23 24 25 27 32 41 48 66 78 81 82 75 68 65 56 51 56 61 58 48 38 36 37
26 23 18 24 26 22 20 18 17 16 17 17 16 15 14 16 23 26 28 28 27 26 27 26 26 26 27 27 27 29 34 42 63 74 85 86 76 72 66 60 62 70 68 62 48 38 39 33 11
18 16 27 31 24 21 19 18 18 18 17 16 16 14 14 16 21 27 34 36 34 33 35 35 31 30 30 32 32 33 33 55 70 79 80 79 77 71 70 74 79 72 61 44 39 41 26 8 9
14 23 32 25 24 22 23 21 18 18 18 18 18 17 16 17 21 23 27 35 36 37 41 41 39 38 36 34 36 37 41 56 74 82 90 84 82 84 83 80 70 54 43 40 38 20 8 10 15

GFSSGP_500_rhum_045.txt.gz
RH
7 5 4 7 20 19 29 80 90 85 58 55 46 89 89 88 81 77 83 95 85 53 58 83 95 92 52 28 17 12 10 7 6 4 6 9 10 12 12 12 11 10 10 9 9 9 9 9 9
11 10 10 18 18 68 65 75 86 69 95 56 59 91 94 91 88 90 94 99 93 77 84 92 96 63 30 27 24 12 16 6 4 5 7 9 11 11 11 11 10 9 9 10 10 9 9 8 9
32 22 26 39 40 72 69 90 60 25 36 46 57 65 81 99 98 94 83 94 94 90 95 95 68 39 29 33 12 15 25 6 4 6 8 9 9 10 10 9 9 10 10 9 7 7 8 8 9
55 49 41 44 92 84 87 92 33 34 40 44 49 71 86 98 98 96 96 97 94 95 97 95 56 35 27 25 14 19 13 4 5 6 7 8 9 9 8 8 10 9 8 8 10 13 12 10 11
61 58 72 74 75 84 95 46 44 44 32 56 71 82 97 97 97 97 97 96 95 96 96 92 46 46 56 44 23 17 5 5 5 6 7 8 8 8 8 10 11 19 26 21 19 24 23 18 15
60 63 92 78 72 88 89 33 41 96 65 66 78 83 94 96 95 96 94 96 96 96 96 96 83 75 36 19 14 6 5 5 5 6 7 8 8 8 8 12 14 31 48 45 37 32 22 18 16
54 78 90 90 91 89 41 97 91 74 78 80 79 85 96 98 91 91 96 96 95 94 94 85 68 35 11 12 7 5 5 5 6 6 7 8 7 8 11 18 21 38 45 48 61 47 36 25 26
50 57 91 91 89 76 68 62 69 66 90 94 86 85 91 92 83 98 96 96 94 94 96 80 53 19 12 8 5 6 6 6 6 7 8 7 8 12 17 20 29 32 35 33 34 40 39 34 32
56 52 96 90 82 95 96 73 54 74 91 95 92 87 94 89 79 83 94 96 94 85 50 42 16 14 15 5 6 6 6 6 6 7 8 11 15 20 25 32 39 29 32 34 26 24 23 21 21
60 68 97 84 97 98 95 85 74 74 93 95 91 91 88 46 58 68 74 69 91 21 20 16 16 15 6 6 7 7 7 7 9 14 17 20 23 32 42 55 52 45 36 32 31 27 27 23 22
61 86 96 87 88 79 70 82 85 95 90 88 95 84 11 20 58 61 25 24 22 18 14 11 7 6 7 9 9 9 10 13 19 23 30 34 39 46 57 68 67 60 49 53 40 40 43 26 22
77 95 71 99 89 77 90 81 82 100 73 41 43 18 10 10 7 12 6 8 7 7 7 8 10 10 11 12 12 15 16 20 23 29 50 54 53 72 80 91 95 69 56 41 39 32 28 27 27
74 97 92 77 87 86 88 96 79 19 13 9 10 11 10 11 10 11 11 9 9 10 11 12 12 12 14 17 18 21 23 30 42 79 87 76 80 98 99 94 77 61 54 47 41 38 38 40 38
98 84 81 90 96 91 77 98 54 26 10 10 13 16 13 13 14 12 11 11 11 12 13 16 18 19 20 23 37 53 63 69 74 82 86 92 97 100 97 93 80 68 56 48 41 41 41 49 50
98 94 98 97 97 76 94 88 69 21 13 13 18 20 17 16 16 16 14 17 18 21 25 27 40 35 44 66 78 92 98 92 97 99 99 96 97 91 83 72 63 61 52 47 47 51 58 60 59
98 94 94 95 73 67 97 91 22 32 23 24 27 26 22 18 17 17 19 20 24 26 34 44 52 49 39 61 93 83 79 86 96 99 97 91 91 96 79 70 59 52 48 51 61 63 61 59 45
98 97 98 90 72 61 90 89 19 27 43 48 48 38 28 23 18 18 19 20 20 22 23 31 42 45 79 82 87 92 96 97 96 97 97 88 98 99 85 65 55 58 61 71 67 47 41 38 36
94 98 97 98 66 80 77 68 21 29 37 86 82 64 45 35 32 26 22 19 18 23 36 37 38 42 54 67 81 92 86 71 65 60 67 96 100 93 80 68 58 70 67 58 49 47 47 49 48
99 84 82 82 52 75 81 49 22 38 44 75 41 34 38 34 30 25 23 20 21 21 27 34 34 35 48 35 34 34 39 62 62 75 81 95 82 66 66 68 74 74 62 58 68 67 66 57 49
94 100 89 82 61 47 51 80 36 32 41 37 36 34 38 32 27 21 19 17 18 19 18 18 18 20 25 36 50 57 59 59 67 81 89 80 60 61 72 98 90 83 87 81 75 72 65 54 53
94 99 97 98 57 63 92 94 26 25 29 32 30 27 28 23 22 24 23 25 28 29 31 34 29 28 34 40 31 30 34 28 35 50 44 39 48 61 68 72 81 84 78 77 77 74 66 56 52
100 51 56 48 25 83 48 92 98 70 31 39 41 29 23 24 26 24 21 22 31 42 43 29 25 21 21 22 20 20 20 22 24 22 23 23 42 51 66 73 77 76 77 76 76 70 60 56 54
96 40 58 82 82 100 96 52 90 78 64 40 24 25 23 21 20 19 24 34 40 27 21 19 16 18 19 20 20 21 22 22 22 22 23 25 29 42 62 72 77 79 79 81 74 66 62 58 47
55 63 92 67 92 96 74 98 90 94 89 30 17 15 15 17 22 28 33 26 20 18 18 18 19 21 22 22 21 22 21 21 21 20 22 23 27 35 42 54 60 70 77 76 71 70 60 50 49
57 64 95 96 95 64 79 43 71 78 42 28 21 21 24 25 24 20 18 17 18 19 20 21 24 25 25 25 23 23 24 25 25 24 25 26 28 36 50 70 83 87 79 72 64 53 48 54 57
79 98 100 92 81 61 76 28 89 25 20 18 16 15 16 15 15 16 19 21 23 23 24 25 27 29 32 31 29 30 30 30 30 30 31 34 32 63 67 73 78 71 65 58 52 54 64 59 47
83 48 41 31 28 20 22 88 23 18 16 15 15 15 16 14 15 20 24 27 28 28 28 28 29 33 38 38 36 33 33 34 34 34 35 36 40 45 57 69 70 66 59 65 72 64 52 41 34
38 37 27 27 19 22 65 47 82 17 16 16 16 16 15 14 14 15 18 24 26 27 27 28 29 32 39 42 41 40 40 39 36 36 37 39 44 57 71 71 68 72 76 71 60 57 47 36 28
26 22 22 17 24 29 27 63 24 16 17 17 16 16 16 16 15 15 16 18 20 19 19 22 25 31 36 39 40 41 41 39 39 41 41 46 66 75 74 72 81 82 71 64 62 57 41 29 17
16 15 14 17 31 25 23 27 20 19 17 17 18 18 18 17 17 17 17 17 17 18 18 20 22 24 28 31 33 35 40 42 44 44 51 72 83 78 80 85 87 82 78 73 58 36 26 15 8

GFSSGP_500_rhum_048.txt.gz
RH
6 5 5 6 14 8 9 21 53 82 80 85 88 66 69 67 69 84 79 78 94 96 96 95 76 53 69 80 86 43 27 13 9 5 4 8 9 10 12 11 9 8 8 7 9 7 6 6 7
15 13 6 6 6 7 19 77 80 52 80 44 44 54 83 73 91 79 87 85 95 88 96 96 81 62 88 90 44 25 26 16 7 4 6 8 10 11 11 10 8 8 8 9 6 7 8 8 8
25 20 22 18 6 6 38 86 91 53 36 34 35 53 40 76 88 85 90 92 96 91 97 97 98 94 94 90 33 29 14 25 7 4 6 9 10 10 9 8 8 8 8 6 8 11 16 17 11
51 54 40 33 15 27 78 75 65 38 40 32 25 32 30 44 57 77 74 90 96 91 98 97 96 96 91 36 32 26 21 18 7 5 6 8 9 9 8 8 8 9 10 32 40 39 30 25 19
79 61 49 45 38 62 94 73 54 34 45 53 36 38 33 39 69 82 82 88 100 97 97 97 96 97 92 39 53 26 20 10 5 6 6 8 8 8 8 7 8 10 12 18 35 43 42 35 21
74 64 56 69 72 70 74 51 29 71 47 36 68 49 49 51 77 84 92 97 96 97 95 96 96 96 93 79 43 22 15 6 5 5 6 8 8 8 7 8 9 12 12 14 30 35 42 46 39
66 59 62 92 98 93 73 83 58 73 72 67 49 68 60 56 90 98 95 96 94 97 96 96 95 93 93 70 15 11 5 5 5 5 7 7 8 7 8 9 12 15 16 21 22 30 24 24 22
60 52 65 75 93 94 88 72 90 72 98 74 96 75 65 71 77 78 87 99 97 96 95 95 96 95 92 70 72 26 9 7 6 6 6 7 6 9 11 12 17 21 28 41 37 30 33 33 32
71 55 52 86 98 97 89 87 96 94 78 79 80 73 84 62 73 75 80 89 96 96 96 95 90 74 62 41 38 14 9 6 6 6 6 8 12 13 13 21 29 30 44 55 53 42 40 39 30
79 61 91 93 97 94 76 94 95 98 99 81 73 91 72 62 73 78 89 96 96 96 93 71 19 12 14 7 5 6 7 6 7 10 14 16 14 16 24 28 33 55 75 60 56 46 41 38 36
77 62 99 94 89 71 76 95 97 100 87 94 83 95 78 77 66 78 89 97 94 70 22 17 21 8 5 5 7 8 10 10 15 17 18 17 22 47 76 82 85 84 89 69 57 48 44 39 38
73 79 100 99 53 60 77 96 88 95 94 92 89 72 68 71 62 60 70 60 6 7 6 6 6 8 10 11 14 10 15 16 17 29 42 56 89 97 89 90 84 94 89 74 58 49 43 39 35
88 63 70 100 68 97 88 95 98 78 52 96 44 37 30 16 83 95 14 7 7 10 11 13 14 15 15 14 13 20 23 33 60 80 83 92 93 88 93 100 89 84 70 62 50 47 43 38 36
93 90 61 89 75 98 90 96 90 24 33 12 8 8 6 6 8 9 9 12 13 14 14 14 15 16 18 21 37 65 80 82 85 82 79 96 96 81 88 89 91 77 75 62 53 49 43 41 41
98 59 58 78 95 100 96 96 81 40 16 13 16 10 12 11 8 11 12 12 14 15 17 18 21 34 42 44 44 67 78 90 96 91 96 94 93 93 87 80 78 72 69 65 58 56 57 52 59
90 62 94 99 99 98 94 77 32 27 17 15 13 13 14 11 10 11 13 15 16 17 18 24 29 38 42 62 82 82 69 98 87 85 91 70 61 67 81 76 91 70 60 50 53 64 64 66 64
83 92 87 87 94 95 97 76 33 22 19 17 17 19 18 14 14 13 13 12 12 12 16 22 36 39 49 79 62 75 88 78 61 63 53 55 51 54 48 66 59 44 41 46 54 58 59 56 50
93 92 80 84 55 90 91 100 83 31 26 23 26 25 29 22 17 15 14 13 13 18 27 21 42 46 41 44 50 48 32 42 58 59 65 44 57 48 34 29 37 53 48 49 54 61 61 61 61
95 97 86 97 44 39 87 95 32 18 24 25 40 24 23 21 21 21 21 22 20 23 26 24 36 25 16 17 26 29 35 34 31 38 23 23 22 24 28 27 32 53 58 68 82 86 85 82 80
98 97 99 93 66 36 92 80 20 14 15 14 18 21 24 26 24 23 22 20 14 15 25 42 16 13 21 26 21 19 18 18 20 19 18 19 19 20 20 24 26 38 59 68 73 79 81 82 84
100 90 94 91 74 29 99 70 37 26 26 23 20 18 18 16 14 16 18 21 20 14 20 28 27 27 23 21 18 19 20 19 18 17 18 20 20 20 21 24 29 35 44 56 61 63 62 62 72
98 72 92 92 73 67 46 98 100 84 55 65 62 37 27 18 16 17 22 33 21 22 32 32 27 24 20 19 20 22 21 21 20 20 24 26 25 25 25 25 27 31 33 38 49 59 62 62 57
58 92 92 97 100 93 94 82 72 96 78 41 58 48 26 20 16 18 17 17 22 27 28 20 20 18 20 22 24 25 26 27 28 30 32 33 31 29 30 30 30 27 29 37 45 47 49 46 46
46 40 60 57 68 77 90 89 83 92 98 97 90 42 26 18 16 16 19 26 23 23 19 19 19 20 23 25 27 30 30 32 33 34 34 35 37 35 32 30 28 30 40 51 57 64 61 54 54
37 42 63 99 99 71 78 76 95 66 91 57 14 20 23 21 22 24 19 16 16 18 20 21 22 23 26 28 30 34 38 39 40 40 40 41 40 37 37 36 33 39 59 71 74 71 64 56 52
37 95 81 94 74 92 76 91 76 36 46 39 21 18 16 15 14 14 16 20 22 24 25 27 27 26 30 30 31 32 33 37 40 41 41 39 39 38 40 42 43 61 79 77 73 68 63 59 64
97 92 79 68 58 25 30 38 52 58 25 19 16 16 16 17 15 14 14 14 18 20 22 23 22 20 20 19 20 23 27 31 32 30 31 34 37 44 46 48 59 88 88 80 77 80 74 81 83
26 39 41 34 22 14 82 79 93 75 46 18 16 17 16 16 15 14 14 14 15 16 16 17 17 17 18 18 20 21 23 25 27 29 41 72 46 51 58 74 98 98 88 87 88 91 97 86 60
30 45 25 26 41 33 34 92 78 65 30 17 17 17 16 16 17 17 17 17 17 16 16 17 17 17 17 18 20 22 26 27 30 33 81 46 53 63 82 100 98 89 95 98 92 94 94 70 41
26 36 31 27 16 15 24 49 80 58 25 18 18 17 17 17 18 18 18 17 18 18 18 18 20 20 19 21 24 27 29 33 35 88 99 59 68 83 95 89 89 90 90 94 100 98 77 48 31

GFSSGP_500_rhum_054.txt.gz
RH
9 8 8 8 11 10 17 48 54 90 80 65 70 91 82 70 65 72 70 78 75 76 77 72 73 83 96 96 90 95 97 98 93 79 54 16 5 9 8 9 8 7 6 5 4 4 4 8 12
10 8 8 8 11 10 22 28 54 65 49 55 80 75 86 96 68 64 72 87 79 85 80 81 83 87 97 96 96 97 98 98 94 93 29 11 5 8 9 9 8 7 6 6 5 6 9 17 15
9 9 10 9 13 27 37 48 50 41 41 42 63 71 82 82 85 91 63 69 80 82 53 66 88 92 95 94 92 96 98 98 94 96 38 10 5 7 10 9 8 7 7 8 7 8 10 12 18
18 16 11 24 72 78 34 23 31 42 32 44 63 60 74 73 93 91 80 59 58 56 50 79 84 98 99 99 98 96 97 98 97 91 25 12 6 9 10 9 7 7 7 8 10 13 15 20 22
34 38 28 94 97 61 25 25 22 56 63 69 76 78 83 87 78 57 54 57 56 90 88 90 81 97 99 98 96 96 97 97 97 69 22 10 6 9 9 8 8 8 8 10 12 15 20 31 39
56 52 73 95 96 62 44 44 58 75 93 60 91 81 61 54 53 55 63 46 51 85 97 97 96 95 96 98 97 97 96 88 41 21 19 12 7 8 8 8 7 8 11 9 10 13 19 37 47
76 79 74 90 79 64 60 55 96 96 91 92 69 64 51 39 49 66 52 64 57 96 95 95 95 99 97 97 96 96 87 83 91 54 16 12 12 7 7 9 16 12 10 12 17 44 46 52 51
91 83 73 79 71 54 47 81 72 71 81 96 73 62 62 69 74 70 63 78 55 95 97 98 96 96 95 97 96 96 91 71 48 27 10 10 17 26 39 16 10 12 32 72 70 55 58 66 59
92 87 63 75 72 44 51 75 74 88 84 60 80 78 78 75 72 83 74 85 94 81 94 94 96 97 96 96 95 89 72 58 40 39 36 45 64 24 11 15 52 87 76 69 71 77 66 57 49
96 81 54 60 77 75 70 69 68 67 64 77 84 76 91 82 65 93 94 92 99 99 96 97 97 97 94 96 95 97 91 73 74 69 50 22 12 23 43 63 81 77 70 55 52 52 53 45 42
92 82 65 55 52 59 58 49 42 42 46 54 62 77 96 83 96 92 68 77 92 99 96 97 95 92 50 33 40 44 34 25 15 10 12 30 62 66 69 59 71 60 62 60 56 39 37 36 35
86 93 76 62 71 64 49 48 55 45 73 60 76 77 96 97 98 90 100 96 100 97 96 92 67 41 17 7 7 10 12 12 15 34 57 68 65 66 49 60 66 61 67 63 49 44 39 20 14
85 91 84 62 65 53 40 61 76 79 96 93 75 88 97 97 96 98 97 96 93 93 86 51 20 10 8 10 11 12 18 33 55 64 70 66 57 58 63 64 48 53 49 48 44 30 22 19 18
85 92 100 70 51 43 52 71 77 88 93 98 97 94 96 97 92 73 67 61 48 14 13 14 12 9 12 18 34 37 38 50 56 57 76 46 31 32 38 42 40 37 25 19 17 18 19 18 19
90 77 64 65 58 55 68 86 88 96 64 94 83 65 59 41 45 14 13 21 20 14 28 23 16 17 25 37 41 46 72 65 62 66 32 21 25 31 28 24 16 16 17 17 18 19 20 21 22
70 83 90 74 71 74 74 93 94 84 57 94 87 45 15 15 16 24 51 34 33 26 13 17 22 32 43 37 63 80 66 54 40 50 27 27 22 17 17 16 16 20 21 21 20 21 22 24 24
67 91 95 93 98 99 90 54 44 60 50 66 21 21 15 15 15 14 11 9 15 21 17 18 22 26 36 37 47 44 34 48 56 31 22 17 18 19 18 20 25 28 30 30 29 28 28 28 28
99 99 97 97 98 99 88 53 27 16 25 29 20 16 11 12 12 10 10 12 18 43 28 46 27 36 51 42 20 33 43 53 20 19 19 20 21 23 24 27 30 32 34 36 37 36 34 32 28
97 75 96 79 68 84 83 46 34 35 43 41 21 36 14 14 12 14 15 17 18 17 17 22 26 35 50 30 39 34 36 19 20 22 24 25 27 28 30 32 34 36 38 39 38 35 32 29 29
79 82 77 62 67 93 79 87 42 33 30 44 55 14 20 11 10 9 13 15 19 22 20 22 29 42 42 30 25 18 17 20 21 24 26 28 31 33 36 38 38 39 37 33 31 30 30 31 33
70 60 64 60 70 40 90 61 19 31 54 58 49 26 39 32 14 11 11 14 18 23 21 27 48 46 34 21 17 17 18 21 24 26 27 27 25 24 26 27 28 27 26 25 26 31 31 33 39
87 78 73 72 80 71 78 54 51 36 48 70 76 49 35 29 21 15 15 13 15 30 25 41 40 43 45 20 18 18 22 24 27 28 26 24 21 20 22 23 24 26 29 29 31 40 59 42 47
63 66 72 75 79 34 36 66 81 67 56 53 78 65 29 32 41 23 25 23 22 21 23 37 32 39 36 20 21 24 25 28 23 19 18 18 18 20 22 23 23 22 24 27 36 59 70 80 79
65 86 65 66 77 56 97 77 59 97 84 71 76 42 25 48 52 18 24 19 22 23 19 20 34 26 30 25 26 23 20 19 18 18 18 18 18 19 19 19 21 27 34 37 50 92 100 88 76
69 71 86 73 55 42 54 54 49 65 56 38 73 34 41 32 24 19 18 16 31 20 24 39 24 23 19 17 17 18 18 18 18 18 18 18 19 21 30 37 42 48 41 47 49 55 54 52 47
64 78 44 47 60 56 70 73 84 79 75 52 38 27 20 16 16 17 17 17 50 24 40 27 16 18 20 18 18 19 17 13 12 12 14 17 29 50 49 48 72 62 62 72 53 56 70 77 79
51 50 53 55 52 59 99 83 59 50 32 50 55 28 18 18 18 18 18 31 33 26 29 18 21 21 18 18 17 14 14 12 13 15 34 56 65 100 76 81 91 59 86 75 65 76 97 93 96
64 40 62 84 69 42 33 50 45 32 55 86 74 58 20 18 19 19 19 22 18 19 18 18 21 19 16 15 16 15 20 33 41 70 97 98 78 95 63 59 60 69 95 78 90 100 95 97 100
58 30 42 36 29 24 18 25 26 50 57 82 66 60 43 19 20 19 19 18 18 17 17 16 15 14 15 23 34 52 82 91 96 76 79 94 95 96 65 98 64 76 77 90 100 100 100 97 96
91 33 27 43 70 54 21 17 28 54 90 77 63 41 43 29 27 26 22 17 16 17 18 17 15 26 59 88 83 99 97 82 76 66 66 94 91 57 73 87 76 88 98 98 98 97 95 91 76

GFSSGP_500_rhum_057.txt.gz
RH
8 11 14 16 21 11 21 54 73 74 64 83 94 95 96 85 74 71 65 86 79 71 74 75 74 80 94 78 85 97 97 94 95 97 89 88 72 15 8 9 10 9 7 6 5 4 3 3 5
9 11 32 30 32 36 41 42 50 55 52 75 96 98 97 91 90 67 67 64 67 76 77 71 76 81 70 73 95 96 96 96 98 100 94 94 52 11 9 10 10 9 8 6 6 6 5 5 8
11 14 65 67 84 55 38 32 31 33 42 58 86 98 90 86 98 89 90 84 82 70 71 63 65 60 67 59 78 100 99 96 97 99 92 97 55 7 11 10 11 10 8 7 7 8 9 11 12
15 32 79 92 77 41 29 18 18 28 28 42 69 64 69 79 77 79 93 92 92 92 92 67 62 80 65 85 91 100 99 96 97 96 96 94 53 53 19 21 11 9 8 8 8 9 10 12 12
31 68 85 73 78 49 29 23 25 36 38 40 63 76 61 61 63 59 65 76 78 72 79 69 87 96 94 97 97 100 93 98 96 97 96 93 71 17 33 13 9 8 8 8 10 11 8 8 10
69 83 83 90 68 76 38 35 29 32 60 67 70 68 64 57 74 70 73 76 62 77 73 74 96 96 94 97 96 96 97 96 96 96 86 62 51 39 9 8 9 8 10 15 14 16 28 32 39
87 83 86 91 96 74 64 64 67 64 64 75 92 82 61 67 72 65 75 62 83 96 94 78 87 98 97 97 98 97 96 95 88 44 46 40 21 9 22 8 9 16 16 20 28 47 64 62 58
96 85 78 83 89 100 99 98 83 64 74 67 76 83 63 62 60 58 49 42 49 51 50 52 97 94 96 96 97 96 96 95 95 76 37 34 19 30 8 28 27 17 35 45 62 64 55 62 65
94 80 80 73 76 95 97 87 84 73 71 68 72 72 70 51 58 58 57 64 69 54 78 93 96 96 98 96 96 96 94 93 77 46 29 22 22 48 56 53 26 47 41 52 70 61 47 43 47
95 74 69 67 71 87 94 86 70 66 61 61 64 60 67 59 70 63 72 82 99 97 62 98 97 92 96 96 96 95 92 83 62 65 45 40 53 56 18 35 52 66 67 68 65 57 49 47 36
92 82 75 59 60 67 86 80 64 53 50 46 53 56 58 55 90 82 82 89 96 95 95 97 96 96 95 94 96 97 96 82 83 77 63 48 29 38 71 66 60 62 58 62 67 62 53 44 40
71 93 91 74 62 58 63 60 54 50 42 34 51 64 50 85 93 95 96 89 99 94 99 97 97 96 92 71 63 77 84 65 39 17 15 29 64 57 67 62 47 56 56 62 65 42 35 21 17
42 81 98 65 66 81 66 61 52 68 64 79 96 88 81 90 94 99 96 96 97 99 97 96 78 82 81 41 25 16 14 16 21 40 57 76 76 67 47 30 38 42 49 34 18 15 16 16 17
69 88 100 82 78 64 52 55 66 70 83 96 100 100 100 96 96 90 86 97 95 93 92 73 18 11 10 12 16 22 31 45 62 73 68 83 64 29 22 31 33 22 16 14 14 18 19 20 21
78 82 76 70 66 60 54 69 87 97 82 97 87 94 95 82 69 72 46 68 34 28 34 39 44 45 48 32 39 40 57 72 67 64 64 58 33 23 25 18 14 15 17 21 25 27 26 25 26
74 78 61 64 72 60 72 84 93 96 90 97 45 34 19 26 60 41 15 15 18 28 62 77 59 36 38 39 38 69 71 66 50 44 53 34 15 13 15 16 18 22 27 28 26 24 25 27 28
77 78 55 58 94 100 85 88 95 86 59 62 53 18 17 14 15 29 35 30 42 41 21 24 25 31 37 43 59 58 41 32 49 58 22 15 16 18 21 24 26 28 28 29 31 32 32 34 32
77 99 99 95 96 99 80 60 35 30 47 32 32 31 23 17 14 16 19 26 31 29 35 39 33 52 68 66 45 28 34 37 38 17 17 18 21 25 27 28 29 29 30 31 30 26 25 23 25
96 100 95 90 100 97 99 90 52 47 43 45 43 32 23 23 23 20 18 16 17 26 26 14 16 22 43 50 33 35 28 27 16 18 20 22 24 24 24 23 24 24 24 23 22 21 22 24 27
71 85 70 55 82 86 72 70 27 35 46 38 36 25 22 23 18 17 15 14 13 13 17 36 29 39 38 44 25 23 16 17 19 20 22 22 22 19 20 21 20 19 20 20 20 20 23 25 26
78 90 81 66 44 58 51 49 24 23 52 36 42 21 31 41 39 24 21 23 20 14 15 21 41 37 48 37 26 19 18 20 20 21 20 19 18 19 18 18 19 18 18 19 21 25 31 39 43
76 69 70 61 52 48 30 39 40 21 30 38 67 63 51 39 49 25 31 21 20 20 31 29 55 63 56 38 43 21 20 21 20 19 17 17 18 18 18 17 16 17 21 30 46 52 57 53 64
65 60 70 62 56 56 44 23 39 23 32 35 44 68 47 36 34 32 24 33 44 60 59 29 76 56 73 62 58 35 22 18 17 17 17 17 18 17 15 15 22 36 52 52 38 50 76 65 57
64 50 50 58 57 60 48 43 51 46 51 57 59 59 43 28 49 50 27 29 19 52 45 32 59 40 57 66 58 32 22 17 17 17 17 16 15 14 20 36 48 69 88 69 90 54 76 53 44
70 52 41 39 42 46 65 47 64 63 72 44 49 34 21 28 52 18 22 17 17 32 47 67 60 62 58 45 28 26 19 18 17 15 15 14 19 29 42 87 98 75 99 100 96 47 50 55 60
88 72 51 38 33 35 52 41 48 72 75 52 28 24 31 16 18 16 17 17 23 44 37 78 74 78 53 36 24 19 18 17 15 19 22 29 46 63 64 78 96 71 70 91 100 63 100 95 56
86 76 60 44 36 32 62 51 58 84 79 63 49 23 18 18 18 16 17 18 24 34 38 66 63 48 23 29 26 16 22 20 26 45 47 49 64 64 98 73 85 98 100 99 73 54 91 66 74
89 86 61 46 53 58 51 56 66 73 53 36 24 59 27 20 19 18 18 18 19 19 25 36 20 18 18 20 23 15 18 36 45 41 68 61 99 84 96 72 78 100 67 99 75 58 72 90 98
100 98 88 51 67 40 46 39 31 24 24 24 34 77 58 46 32 20 21 21 24 24 18 19 20 19 22 18 15 37 50 71 60 74 87 87 74 96 88 48 51 56 69 63 65 92 100 98 100
83 68 100 34 37 30 23 19 20 20 21 18 34 62 74 74 67 39 27 25 26 22 25 26 24 23 27 33 42 70 69 100 96 100 81 68 64 55 45 63 64 70 71 94 99 100 100 97 100

GFSSGP_500_rhum_060.txt.gz
RH
13 10 8 12 19 24 39 71 84 71 75 93 89 95 84 95 96 84 72 72 77 90 94 94 87 87 83 76 71 63 68 86 99 100 95 95 93 92 31 16 9 9 9 8 7 6 6 5 6
14 10 10 19 22 46 49 42 64 56 60 86 85 91 92 98 86 91 74 78 77 75 76 82 81 82 79 77 69 58 61 83 99 97 94 94 90 88 19 11 10 10 11 9 7 7 7 8 9
15 12 17 29 32 50 50 33 26 29 65 70 76 70 90 95 96 91 94 99 94 79 78 79 74 74 73 63 68 64 74 64 96 94 100 94 85 83 15 10 12 19 14 9 8 7 7 8 8
16 16 25 37 62 58 48 26 23 21 33 47 50 54 68 76 74 79 87 90 84 75 99 88 83 79 81 89 96 93 100 87 89 98 98 96 91 79 11 43 16 29 11 9 8 8 9 9 10
20 29 49 45 75 68 46 32 21 23 30 44 68 75 77 87 82 80 73 73 69 67 78 86 78 83 92 94 100 95 93 98 93 99 96 95 96 53 52 45 36 12 9 9 8 10 11 12 29
41 47 65 65 89 96 68 61 40 51 64 71 58 56 67 78 68 68 67 68 80 76 78 92 86 86 78 98 95 96 98 96 97 98 97 96 94 64 44 37 11 9 10 9 13 16 18 37 51
59 81 85 100 100 100 100 93 74 69 80 76 70 71 51 60 56 63 60 64 60 79 94 89 90 93 100 98 98 96 96 97 97 96 94 95 91 74 42 11 11 13 15 25 25 22 40 47 46
79 90 86 98 94 97 96 100 100 91 74 62 58 83 95 90 65 66 80 68 58 64 65 70 89 97 92 98 96 96 97 96 97 94 81 90 70 17 10 14 19 23 41 38 19 26 41 49 52
95 84 95 83 93 99 93 97 95 93 78 84 82 77 70 79 78 65 60 55 57 48 59 69 100 96 95 91 98 96 96 97 96 94 90 75 42 21 22 30 37 47 35 24 38 51 59 59 51
98 89 96 82 84 89 96 97 96 89 69 69 68 69 66 69 59 68 60 59 51 62 75 98 96 87 89 97 97 97 98 95 95 86 52 34 49 27 36 47 37 33 44 62 62 62 62 63 58
92 78 96 95 73 65 72 81 91 85 67 57 49 50 56 52 52 58 61 80 73 65 96 90 98 96 96 97 99 96 96 95 90 84 74 58 58 73 64 40 40 68 61 59 60 47 36 27 20
38 88 98 99 95 69 66 60 70 72 62 51 37 34 36 43 79 80 93 90 85 76 81 81 94 97 96 97 96 97 93 94 93 94 87 62 39 26 47 86 84 61 43 29 24 17 13 13 13
70 63 99 86 87 87 80 68 64 62 53 54 72 73 43 70 76 92 82 96 94 88 95 96 91 98 98 97 91 85 81 78 64 39 20 20 52 67 90 74 31 22 24 16 13 13 15 17 18
78 79 61 77 76 69 62 73 60 52 51 85 90 95 96 95 94 89 93 98 98 98 98 96 85 67 44 28 20 24 32 22 22 49 76 76 73 75 44 24 20 13 13 13 15 18 21 20 19
76 76 79 64 71 69 55 66 56 63 86 97 97 96 90 98 97 80 86 98 90 90 76 21 16 16 17 17 19 24 35 45 53 70 63 54 53 51 21 17 14 14 16 20 24 24 20 20 20
74 74 88 87 63 56 54 62 76 85 92 60 46 42 93 30 23 35 72 72 49 51 57 75 82 77 67 63 56 48 64 75 68 54 49 65 33 31 17 17 19 22 26 27 26 22 20 18 18
65 74 85 90 92 94 98 96 89 94 83 50 29 50 35 65 28 20 22 36 47 48 63 65 67 53 51 46 43 63 65 54 39 51 66 20 17 21 20 23 24 28 24 20 18 16 17 17 18
70 76 100 100 98 95 90 83 84 84 69 55 40 28 20 19 23 29 28 30 38 38 27 37 32 25 24 33 40 31 17 31 48 48 19 18 21 20 23 23 22 18 17 17 17 16 16 17 18
87 97 98 99 96 89 80 69 79 62 58 91 48 34 26 24 18 18 16 23 30 33 27 28 23 29 32 44 43 30 32 44 32 20 18 21 22 21 18 20 16 16 17 15 15 16 16 17 19
95 97 100 96 83 98 72 46 45 59 58 64 46 38 26 25 23 21 19 16 19 33 27 32 32 27 36 39 50 32 30 24 22 19 20 21 19 16 16 16 16 16 15 15 17 17 18 24 25
72 87 77 53 70 80 70 48 32 48 37 42 35 30 30 26 21 20 18 16 17 22 28 27 31 47 42 48 42 27 21 26 20 20 18 16 16 16 16 17 16 17 16 18 23 36 42 52 38
66 72 68 68 55 46 53 72 29 20 46 44 77 67 84 87 75 36 30 22 16 15 13 12 18 42 43 48 33 34 35 30 23 18 16 16 16 17 16 16 18 20 23 31 43 60 64 85 85
69 62 60 64 78 64 57 37 46 34 58 34 77 57 70 60 65 60 58 47 39 57 53 42 42 49 68 61 52 59 81 76 52 34 18 17 18 16 15 17 21 26 34 45 94 100 81 83 70
58 55 54 65 60 61 65 37 38 51 56 71 61 50 61 33 43 50 45 44 41 54 83 70 47 59 58 51 59 86 83 66 61 34 18 18 17 17 22 37 42 51 76 84 100 100 73 84 100
59 72 57 48 47 48 57 46 43 69 56 64 53 57 65 28 27 45 53 32 37 32 60 67 75 76 76 71 89 96 57 55 54 20 20 22 22 31 54 50 54 71 93 91 100 74 71 90 90
59 69 92 70 53 47 36 31 38 45 46 62 50 38 31 28 33 57 25 23 17 46 50 52 52 96 97 96 97 66 42 43 32 29 23 25 40 53 67 67 54 84 85 100 93 65 46 74 52
76 83 83 70 53 41 38 30 32 49 49 64 59 65 31 25 18 17 17 18 17 20 30 34 31 92 58 38 34 34 41 40 33 39 45 49 75 94 82 89 86 62 67 97 91 43 50 64 76
68 74 81 85 68 47 52 40 37 57 69 69 65 45 24 20 16 16 18 19 19 18 18 19 23 39 20 19 24 37 32 32 50 63 69 97 100 100 85 96 84 88 67 52 47 62 84 98 94
81 63 75 66 69 73 46 37 53 45 37 41 38 33 20 41 38 20 19 20 20 22 25 26 28 34 28 24 30 29 42 60 54 78 93 89 99 77 96 100 100 77 47 50 72 91 97 94 95
71 55 70 70 53 73 49 35 35 41 24 18 19 22 32 58 77 52 40 47 31 43 32 27 28 50 43 48 62 63 71 81 84 85 92 99 88 93 100 91 60 50 52 74 90 94 91 95 98

GFSSGP_500_rhum_063.txt.gz
RH
19 20 14 12 17 18 21 25 58 82 74 93 99 91 94 90 70 82 64 70 68 63 63 62 64 75 77 81 81 77 71 64 57 73 86 77 94 92 88 50 22 10 10 10 9 8 7 7 6
20 21 14 19 28 33 41 33 27 47 66 82 91 93 98 96 76 71 77 77 83 70 64 70 79 92 77 78 78 79 63 48 48 71 82 84 97 96 92 43 15 10 10 12 10 8 8 7 8
22 21 16 39 48 41 52 44 24 25 46 67 77 85 96 98 98 93 87 96 92 83 83 78 68 69 80 74 76 60 58 62 64 72 86 96 100 94 89 35 10 13 13 16 10 9 8 7 8
22 20 27 50 86 86 62 48 32 31 42 52 78 86 87 83 86 92 95 95 92 85 75 66 67 83 92 80 72 73 78 82 88 96 91 97 98 94 89 29 17 20 17 18 9 9 8 12 15
21 32 61 68 100 100 71 50 46 48 52 61 62 61 80 98 97 92 89 97 98 88 83 90 87 97 90 80 75 79 81 83 86 94 95 96 96 97 93 64 40 26 31 10 9 9 11 17 18
26 60 75 81 96 100 91 61 54 65 82 68 72 94 95 97 99 83 74 73 84 90 88 88 86 87 94 95 83 71 64 88 96 96 96 91 96 96 86 52 47 40 12 9 9 17 26 24 23
27 89 94 96 95 100 99 94 96 90 89 83 75 87 71 58 70 76 69 70 71 80 75 86 91 96 94 97 91 73 76 98 95 95 96 98 95 91 87 51 35 16 9 15 31 36 33 32 30
35 94 97 98 96 99 100 100 100 88 82 86 96 94 78 73 59 58 61 59 71 72 89 95 93 95 98 100 76 81 99 94 97 96 94 95 95 90 61 30 16 12 26 41 40 26 30 28 44
45 87 99 96 90 95 93 90 97 99 96 84 79 83 71 77 86 80 68 64 60 63 65 69 77 66 94 95 85 97 96 97 98 96 95 96 94 52 17 16 22 34 44 36 33 34 48 54 42
47 78 96 98 95 87 87 83 91 91 91 73 71 71 77 70 68 72 80 76 68 62 57 61 79 82 72 80 96 95 87 98 99 96 95 94 90 43 45 37 41 50 39 35 44 53 50 43 24
41 80 100 98 99 82 70 68 70 79 84 77 71 58 56 59 65 57 58 55 64 69 68 74 82 68 98 96 97 94 97 97 97 97 88 82 90 60 48 60 62 52 42 54 47 20 19 14 12
71 54 87 100 92 88 79 90 85 68 70 68 58 38 26 28 33 40 42 59 73 68 92 89 94 90 96 92 89 96 96 96 95 93 94 84 71 74 62 59 48 58 75 71 24 15 13 11 12
75 72 60 89 88 86 78 71 72 72 60 50 42 44 57 46 28 53 63 96 96 87 88 87 89 95 94 97 97 97 97 94 93 90 74 66 56 32 29 42 75 68 26 21 12 12 14 18 19
69 78 79 60 78 75 75 70 70 70 50 48 55 78 74 78 72 78 78 95 90 87 92 95 93 95 99 99 99 98 96 82 61 51 30 30 53 75 88 72 39 20 13 11 13 18 21 22 20
62 76 87 95 52 54 70 74 66 60 57 73 96 99 98 99 96 82 92 81 100 99 98 95 91 96 92 83 70 41 29 25 26 33 77 84 81 68 90 41 14 12 12 17 21 22 22 20 17
53 64 88 87 92 49 51 68 54 58 93 73 79 78 56 83 93 97 98 97 91 82 62 66 60 34 29 33 36 39 45 49 71 85 76 66 71 78 55 15 12 15 20 20 23 19 17 17 16
52 74 90 100 77 69 96 92 85 100 80 48 39 82 82 45 30 51 49 53 68 60 56 73 74 77 75 70 62 53 63 72 74 72 65 73 79 45 16 14 17 20 20 19 18 17 17 16 13
61 69 82 93 98 100 100 100 91 77 52 38 71 36 57 54 22 24 35 43 55 56 66 62 57 54 56 53 45 60 62 42 31 47 64 56 45 18 19 20 19 19 19 17 17 16 13 12 11
58 85 98 86 89 94 90 95 90 87 73 64 76 53 31 27 26 29 31 34 35 36 40 54 51 32 35 39 42 37 27 28 57 56 46 38 19 20 20 20 19 18 17 15 13 11 9 8 10
66 77 95 82 98 81 78 92 95 86 65 45 33 30 33 31 27 26 33 38 38 34 31 33 29 35 34 43 46 40 30 33 39 40 43 54 20 21 19 17 17 17 14 11 11 10 15 18 20
62 74 64 72 90 97 88 63 72 64 47 49 35 30 26 25 22 22 18 22 31 39 33 30 34 34 28 39 40 45 28 24 23 49 46 21 21 17 17 17 18 14 13 18 19 22 27 26 48
52 66 66 62 57 80 83 77 48 69 80 67 49 36 53 52 37 23 16 14 14 15 18 23 23 24 37 47 45 47 27 32 40 50 35 35 25 17 17 17 16 15 16 20 22 26 43 46 65
47 62 66 70 80 68 59 45 56 33 56 87 100 96 86 69 50 44 30 15 14 14 14 17 25 35 50 81 82 52 57 62 66 85 82 59 35 16 18 19 17 18 26 37 28 28 28 52 85
64 56 51 50 60 70 71 62 52 46 68 77 64 93 83 72 86 60 46 33 29 38 36 44 61 65 48 81 60 76 63 74 92 92 66 58 29 25 26 24 29 37 50 72 63 64 86 61 78
49 61 55 49 53 61 64 47 55 52 59 66 68 66 69 69 67 38 39 40 34 43 48 61 77 74 70 82 93 78 69 82 96 83 61 58 82 30 34 37 56 53 72 84 74 76 97 91 66
42 52 60 61 62 58 52 44 40 40 44 47 65 59 62 66 76 41 35 39 48 79 79 86 85 59 63 85 98 98 98 76 58 55 62 82 52 42 31 43 70 92 85 54 65 91 100 84 54
49 57 62 54 50 53 44 42 41 43 42 64 77 77 80 49 31 36 33 56 35 22 21 44 49 39 36 70 92 82 60 31 51 58 69 59 73 75 77 80 89 98 93 76 84 99 100 63 55
50 52 51 52 50 47 41 40 44 50 53 65 67 73 72 49 31 22 20 19 19 19 19 23 20 21 24 31 49 50 57 53 60 66 88 96 94 91 95 98 99 100 100 94 100 99 74 62 81
58 52 53 61 50 48 43 38 41 46 52 44 45 60 61 50 34 42 22 20 20 20 20 23 27 26 27 32 47 66 68 72 90 99 94 94 74 86 100 99 100 100 94 63 70 63 55 83 88
56 55 61 68 68 58 42 31 35 40 46 36 28 20 17 16 18 19 70 66 48 45 54 48 58 42 32 50 71 81 84 89 99 99 93 90 84 98 100 100 100 93 99 88 51 58 85 86 83

GFSSGP_500_rhum_069.txt.gz
RH
8 5 8 13 16 45 72 64 83 78 73 94 96 61 48 59 62 48 96 66 63 64 83 83 65 60 59 59 56 53 50 51 58 72 68 56 55 64 79 84 79 67 57 30 15 10 8 7 6
6 8 12 16 20 67 76 86 87 83 97 75 70 84 34 99 96 98 93 70 67 71 76 73 62 64 62 63 57 53 55 64 76 74 69 53 50 57 71 87 85 71 59 43 16 11 9 8 7
7 11 15 78 87 73 83 96 95 89 87 59 44 34 33 47 85 99 72 90 61 58 60 60 58 70 68 62 59 58 73 84 76 68 56 49 72 65 69 90 90 74 57 36 16 12 12 10 9
12 15 18 21 76 91 83 98 83 100 48 27 22 86 28 58 53 83 86 59 64 64 74 82 81 77 82 76 61 62 65 68 65 56 51 73 89 85 74 81 92 84 66 28 24 13 14 10 9
18 18 63 82 74 83 94 96 70 72 39 86 38 29 31 49 80 91 98 84 98 67 99 86 89 87 77 74 68 69 60 66 62 59 66 84 95 99 95 96 89 74 48 34 60 13 17 10 16
24 29 88 88 95 95 84 91 81 78 70 80 42 57 27 83 61 96 90 96 100 90 99 100 88 93 83 73 65 63 52 72 75 75 80 83 97 97 99 96 93 89 81 55 27 20 11 11 31
29 78 91 81 76 90 91 93 82 84 75 98 77 88 69 73 64 95 97 78 92 92 91 96 95 96 99 76 67 54 49 78 78 90 93 94 98 95 95 95 96 94 94 76 25 20 15 38 30
29 24 88 89 89 100 91 51 68 99 99 63 89 100 100 66 58 63 76 68 91 93 88 93 97 97 95 93 88 85 89 96 94 89 85 85 96 93 98 94 97 98 90 74 32 32 45 34 39
21 48 96 98 88 97 74 75 78 68 94 90 80 81 77 78 65 83 77 50 77 90 90 93 93 94 95 95 96 91 96 93 96 95 94 96 96 97 92 99 98 95 90 80 48 44 40 38 38
21 92 100 94 92 80 69 59 86 54 83 86 79 57 65 74 73 80 88 89 94 78 92 97 95 100 83 84 96 96 96 88 95 96 96 94 96 96 96 90 92 76 69 24 47 65 39 44 34
86 88 100 100 94 90 73 70 72 68 67 75 66 62 64 62 64 79 81 78 86 96 94 93 93 93 92 95 72 78 94 84 70 97 93 98 95 96 98 97 94 33 36 72 64 50 46 54 27
49 100 97 76 66 82 90 72 69 79 66 58 55 55 57 58 54 58 70 77 84 92 83 95 94 82 90 97 64 92 96 91 97 96 96 95 96 96 94 79 73 89 76 63 48 40 19 16 10
61 99 51 39 32 42 64 80 76 92 56 45 39 38 36 34 26 27 42 52 57 64 64 63 81 72 85 97 96 98 97 94 95 95 97 96 95 95 91 81 70 60 61 45 53 21 13 12 17
73 43 47 30 23 38 36 92 68 95 48 41 43 40 33 30 25 27 36 62 64 35 37 62 80 96 94 96 97 93 94 96 98 98 96 96 95 94 89 78 57 51 47 57 30 13 14 20 21
33 31 98 98 99 89 23 25 73 60 34 45 46 46 59 55 37 46 36 28 31 66 96 94 97 95 96 97 97 97 96 96 98 90 87 89 87 71 52 41 50 63 71 25 14 17 20 19 14
33 87 99 94 51 37 29 96 96 41 32 44 64 79 75 75 58 61 67 74 96 76 80 98 93 94 93 96 82 83 91 84 72 60 56 57 72 84 78 70 66 61 16 16 20 20 16 14 15
100 98 88 92 88 88 56 50 98 56 49 80 80 85 65 88 79 90 95 97 85 96 98 95 96 98 92 99 89 88 90 78 72 71 81 90 95 95 81 76 86 42 20 21 20 17 15 16 16
99 100 98 77 90 73 98 99 98 83 87 76 44 75 78 78 84 96 96 95 92 95 92 95 100 94 96 92 75 61 51 50 52 70 98 100 98 88 98 99 47 21 22 22 19 16 16 16 13
59 100 100 100 90 62 99 96 100 87 73 82 93 95 67 36 84 55 65 70 67 62 50 67 94 75 72 52 58 65 80 97 100 100 100 80 73 82 82 66 22 22 22 19 17 17 16 17 13
43 96 100 94 80 64 95 100 96 70 69 64 55 38 45 25 26 32 40 47 48 46 42 36 36 39 40 44 54 66 73 70 62 47 41 46 59 79 80 48 22 22 20 17 17 17 18 16 18
49 80 97 77 80 84 86 100 92 46 49 58 36 28 25 24 17 17 21 23 24 29 29 27 26 32 32 35 43 50 53 52 48 44 36 38 78 66 75 66 22 21 19 18 18 23 23 15 23
67 83 55 47 50 97 60 96 93 98 42 42 37 24 18 17 17 18 17 16 18 25 34 36 35 32 29 29 28 27 29 34 38 45 42 34 64 80 89 47 36 45 39 35 31 31 21 25 19
36 40 50 53 53 71 98 77 99 100 96 85 49 49 47 23 26 29 21 15 14 14 16 18 23 25 24 25 21 19 20 33 43 46 47 32 55 68 74 88 73 83 59 58 50 56 42 38 29
32 43 47 45 46 100 99 62 96 98 95 98 99 37 53 56 65 74 72 67 62 40 27 18 18 20 24 43 65 70 52 50 57 77 63 38 48 70 87 99 98 96 86 83 73 63 51 53 52
38 43 92 74 99 89 80 50 72 100 46 52 37 47 60 62 66 71 70 72 77 69 32 29 28 36 61 55 46 79 73 73 78 96 89 80 89 97 97 92 94 97 97 89 75 67 46 41 64
36 46 99 95 98 96 68 48 96 60 40 46 46 49 59 62 64 66 58 68 66 71 63 44 46 51 52 57 82 69 59 42 41 91 67 78 98 98 96 88 84 99 99 89 80 75 59 67 92
62 35 91 93 81 70 76 94 66 41 37 34 36 44 45 58 68 69 63 46 36 40 48 36 40 38 28 30 42 43 39 23 24 26 27 61 70 96 95 94 98 100 95 96 82 85 85 100 100
25 45 49 42 95 95 94 94 95 84 42 33 33 33 36 50 83 84 71 46 27 27 26 22 21 20 20 21 24 25 22 27 33 39 33 55 89 94 98 97 94 98 97 86 87 100 100 100 99
17 28 42 100 100 100 100 95 98 72 50 46 39 38 44 56 83 84 70 63 57 36 24 22 22 21 21 21 21 24 32 48 58 51 41 58 61 86 95 96 98 74 64 81 100 100 100 83 100
86 25 50 82 95 74 76 94 99 72 70 42 34 41 44 47 61 71 70 62 52 60 71 57 40 44 47 49 56 63 80 77 60 53 47 47 76 74 90 97 83 72 84 97 99 99 100 69 31

GFSSGP_500_rhum_072.txt.gz
RH
14 12 8 4 7 10 64 95 71 86 82 68 46 52 36 22 39 83 65 64 84 97 88 84 95 75 64 58 53 52 52 50 50 53 56 65 68 56 53 68 74 77 70 61 49 34 20 11 9
14 10 4 7 15 50 91 93 85 86 60 37 29 31 39 70 45 54 82 84 89 96 81 90 86 84 65 58 51 54 57 56 54 58 68 73 68 55 51 55 72 78 74 65 56 44 21 12 10
12 6 6 9 49 61 95 71 79 70 88 32 27 34 31 66 53 57 57 85 97 86 70 79 86 79 73 61 57 62 63 62 63 77 80 71 63 48 64 65 64 80 78 67 58 36 19 15 11
8 6 14 32 54 83 80 91 72 67 61 60 96 69 69 51 47 46 61 87 93 93 100 99 93 90 83 78 82 80 73 66 68 72 72 65 55 70 79 85 73 78 80 70 50 28 20 16 11
6 12 30 99 93 86 92 32 33 92 42 28 100 97 88 82 48 32 47 56 77 95 92 95 100 89 91 95 93 87 80 65 64 61 66 66 67 82 95 96 92 92 84 78 49 19 40 61 11
6 14 65 97 98 83 83 48 59 80 57 76 76 90 88 94 67 58 88 72 91 75 96 96 98 90 92 88 79 77 82 72 69 63 70 66 76 90 94 96 98 94 90 80 76 80 84 13 10
8 25 79 85 70 78 70 31 68 99 64 75 60 71 97 96 95 65 91 85 78 97 94 94 96 97 90 93 82 88 84 76 72 72 77 83 91 98 96 96 96 96 96 92 89 85 14 24 31
12 21 70 100 89 81 74 76 26 56 30 49 57 100 89 92 81 55 69 90 90 95 85 82 93 96 96 98 91 81 82 89 83 93 94 94 96 97 96 96 94 94 96 95 94 53 41 41 53
18 33 99 91 95 96 96 78 26 63 71 48 65 52 70 58 76 72 62 68 98 100 92 79 89 96 96 96 96 80 96 92 93 84 88 96 95 97 95 96 94 94 93 97 89 57 70 64 53
20 38 97 95 85 82 57 38 23 39 47 96 83 88 51 50 69 65 68 67 64 66 66 81 82 89 95 86 96 96 96 95 94 93 93 93 95 96 96 96 96 96 94 95 88 48 53 67 48
56 71 100 78 98 66 40 59 46 64 31 72 81 71 59 41 63 66 61 54 57 57 77 91 90 91 91 96 89 96 90 96 96 93 97 96 100 96 98 98 95 94 89 54 45 59 62 55 51
99 42 72 66 31 23 32 83 60 68 83 22 37 33 32 35 47 44 56 55 66 55 81 93 91 88 96 95 93 97 90 87 96 95 98 96 96 96 96 96 97 72 59 69 81 67 62 28 17
76 88 79 59 37 16 24 23 51 76 81 28 27 24 27 23 23 27 33 36 47 53 53 56 60 79 94 84 90 96 91 86 97 96 95 95 98 96 96 96 94 80 85 79 74 51 51 13 11
42 55 22 74 84 66 91 54 39 92 48 57 18 15 22 16 14 13 16 20 38 41 42 41 51 74 94 97 93 92 97 96 95 94 95 97 98 97 97 95 91 70 60 62 53 54 17 12 16
15 21 91 89 95 33 45 88 57 89 99 32 29 14 35 29 13 14 14 18 21 30 32 38 85 98 97 95 97 97 95 96 96 93 96 100 98 98 95 88 74 62 57 56 70 20 13 16 18
48 63 94 63 73 70 88 92 89 62 80 65 42 42 67 65 46 25 28 34 28 30 37 96 95 92 84 86 93 86 92 93 96 94 97 98 96 78 68 59 58 62 77 68 20 14 16 17 16
76 77 98 94 62 72 94 95 57 84 98 68 50 45 59 62 64 57 64 60 48 62 87 86 93 98 90 89 82 66 80 93 79 75 70 68 96 86 73 81 79 72 77 20 16 17 18 15 14
98 95 96 98 95 62 82 100 93 80 82 83 76 66 66 73 82 88 88 93 87 92 96 93 83 97 96 83 86 77 78 83 85 82 80 92 90 78 82 88 92 83 36 19 18 18 16 15 15
65 70 99 92 86 69 69 83 51 73 79 54 53 80 49 67 74 80 77 72 74 76 90 98 96 97 90 79 52 45 39 42 51 59 73 91 94 86 75 86 96 78 22 21 18 18 16 15 16
39 35 68 80 89 67 82 96 85 51 40 27 38 28 52 20 33 50 49 46 50 45 32 32 36 54 47 29 27 24 25 30 35 44 52 49 49 44 43 76 82 41 21 20 19 19 16 16 18
33 39 84 99 97 76 74 93 94 68 69 36 28 24 16 15 13 15 17 19 20 22 23 27 27 27 28 26 26 27 30 30 37 44 48 49 43 45 86 79 79 76 52 25 23 26 25 27 30
29 72 88 53 52 98 50 66 89 98 90 63 51 34 31 14 16 13 13 12 11 11 12 17 15 24 24 22 23 26 25 25 26 33 38 43 50 38 58 76 86 98 88 79 48 62 62 51 50
26 23 42 46 40 42 94 60 100 93 82 96 81 55 34 45 28 41 55 56 58 44 19 14 13 13 14 13 13 21 32 42 35 28 43 62 62 54 36 50 65 68 100 98 98 96 77 75 56
21 24 35 42 36 34 94 76 96 96 97 99 91 58 27 39 47 51 48 48 55 65 63 36 33 26 24 37 41 43 56 75 64 60 76 92 95 88 72 66 63 79 92 98 97 99 96 98 87
21 26 39 55 39 74 91 98 83 87 68 68 71 69 26 33 45 47 42 54 50 57 52 42 38 43 39 46 63 70 63 67 55 57 49 63 88 56 62 91 95 98 98 93 96 95 99 98 87
24 33 38 98 88 77 95 48 60 94 55 34 31 41 46 39 39 49 59 44 48 51 62 65 59 41 50 48 37 53 76 66 58 48 39 30 41 30 39 56 79 94 97 98 99 95 98 98 81
32 27 36 98 94 88 46 98 70 93 61 40 42 32 35 32 43 55 66 65 55 53 34 46 42 30 26 22 19 19 22 26 28 32 34 53 35 39 49 62 62 82 92 97 98 99 97 99 93
21 79 60 57 60 79 69 84 94 98 97 60 46 33 33 33 36 46 82 86 71 57 36 26 24 22 20 19 19 20 20 20 26 24 61 79 52 49 76 50 50 67 73 96 98 99 83 80 100
14 20 31 64 64 57 58 93 97 99 92 98 58 37 35 26 34 44 78 92 82 66 72 54 40 29 27 21 19 21 21 21 48 55 67 69 66 75 76 55 49 64 52 70 96 91 95 100 100
13 14 20 26 52 100 90 94 73 75 94 98 82 53 34 26 24 36 43 64 73 70 67 36 22 57 54 36 25 47 49 57 73 83 98 94 87 77 49 51 69 61 29 31 50 21 17 40 50

GFSSGP_500_rhum_078.txt.gz
RH
30 22 18 15 7 5 8 29 48 63 68 82 74 76 65 51 72 76 70 79 86 76 68 78 79 96 100 99 75 81 86 90 83 73 72 69 64 60 64 63 60 59 69 65 59 57 53 45 33
29 22 19 9 5 7 27 49 42 41 52 72 77 74 73 69 55 55 56 56 58 65 73 77 82 92 96 96 90 98 92 91 81 79 77 66 66 69 70 68 67 55 61 75 74 69 65 54 31
27 21 13 5 6 32 45 49 53 54 63 66 68 57 54 78 82 65 57 45 46 60 62 75 66 74 96 94 94 96 88 89 77 76 70 66 66 67 74 73 64 53 55 63 74 74 68 59 29
24 16 7 5 20 41 62 82 92 99 93 86 73 64 81 55 52 58 56 56 52 46 31 58 41 29 44 96 90 91 84 95 84 74 75 77 75 66 66 70 65 54 60 64 78 76 70 51 34
22 11 4 8 15 35 59 53 81 100 61 51 65 71 60 57 90 96 92 94 72 52 41 32 43 56 41 92 94 86 90 100 85 80 81 82 78 67 68 68 68 62 76 84 78 81 77 66 27
18 11 4 8 14 24 70 100 100 82 47 52 36 40 56 54 89 76 81 94 86 90 90 84 69 70 86 97 88 80 97 83 94 91 85 82 90 65 63 68 63 67 84 91 91 87 81 77 70
17 8 6 17 31 30 100 90 89 77 40 29 22 34 73 92 91 94 75 79 94 97 96 96 96 96 99 94 88 79 94 93 86 85 75 79 72 68 68 68 71 78 81 91 93 91 86 83 97
15 8 7 29 36 50 97 92 77 28 25 24 22 34 62 80 86 78 93 94 96 96 96 96 99 95 100 98 96 88 98 85 85 78 72 78 73 70 74 68 80 83 95 94 96 94 92 73 66
13 8 7 15 26 51 70 51 50 32 16 15 18 63 87 64 69 67 74 97 95 94 96 95 89 94 96 97 96 96 96 98 82 78 70 85 77 78 82 73 86 89 92 94 96 93 84 74 46
10 8 7 12 21 26 41 48 59 38 14 17 34 59 90 45 53 49 56 90 67 83 91 96 93 95 97 94 96 95 91 92 94 95 88 94 97 84 87 90 92 86 97 92 95 92 80 72 62
8 8 7 10 12 30 86 95 82 48 16 15 49 74 84 39 38 35 52 44 50 53 54 85 87 90 91 96 95 96 97 97 95 93 94 93 96 90 94 95 97 96 96 94 86 84 76 66 63
9 6 6 13 16 33 64 87 31 42 36 38 70 81 67 25 17 20 29 33 36 44 53 45 64 70 93 90 93 97 96 96 94 97 94 92 100 89 93 97 89 97 96 89 90 77 57 51 60
9 7 6 12 38 80 78 83 83 67 79 79 65 77 80 37 14 15 15 19 30 37 45 46 45 69 81 89 94 94 96 93 95 97 95 95 98 93 88 98 91 95 99 96 84 60 47 67 62
8 8 12 46 68 74 65 98 70 66 81 71 63 59 60 32 15 24 14 12 18 19 29 40 45 53 68 65 82 86 94 95 89 90 92 94 94 90 86 85 81 86 95 95 75 62 65 70 58
9 11 26 47 63 56 77 98 61 80 64 64 61 96 56 27 12 15 14 12 13 15 22 36 39 36 44 71 69 79 80 83 89 84 88 100 96 97 84 80 72 98 100 87 66 72 76 60 59
13 22 30 44 53 50 53 80 79 48 76 66 54 59 55 48 25 22 18 11 11 12 17 17 21 47 66 60 65 80 83 76 80 87 97 88 98 98 78 74 94 100 97 86 77 69 58 56 54
18 20 32 44 53 50 65 68 47 50 56 61 59 60 60 53 53 60 30 19 12 11 14 16 20 31 51 60 68 66 75 73 88 83 89 99 97 90 65 98 100 97 84 70 62 65 70 69 19
16 21 21 14 30 60 90 67 57 62 55 45 65 53 52 56 64 66 80 33 29 22 22 31 49 66 72 58 70 61 63 65 67 60 76 93 88 70 94 94 90 80 86 79 70 71 64 27 18
14 19 19 20 34 47 50 54 82 89 73 34 43 16 41 55 54 52 61 91 80 56 47 45 57 66 70 64 51 50 54 49 57 66 85 78 83 84 88 94 77 75 77 77 82 76 55 18 18
11 21 23 16 41 35 40 55 52 70 65 41 26 38 23 19 34 23 33 41 75 93 77 74 64 64 56 49 38 42 45 53 64 72 73 76 71 72 67 48 51 56 53 65 73 68 24 19 18
10 21 17 37 32 41 35 52 40 59 70 53 40 37 30 16 14 13 10 16 24 33 48 56 49 24 23 21 21 20 19 19 20 23 24 24 30 42 39 38 40 48 51 68 82 74 42 30 48
11 21 46 30 31 36 40 44 39 44 54 49 49 35 36 38 37 53 50 19 8 10 12 16 19 18 16 14 13 12 12 12 14 18 18 18 19 22 27 32 37 39 35 39 63 67 70 68 67
17 13 39 28 29 31 25 24 63 59 42 50 66 43 30 43 46 47 49 46 41 16 11 13 13 11 12 13 13 17 23 28 36 44 43 40 45 61 68 81 78 72 85 78 81 63 50 73 91
16 14 30 23 22 26 29 22 76 51 50 27 29 26 31 35 39 44 44 46 45 47 39 26 19 17 16 14 18 28 42 53 48 41 41 41 48 47 80 71 69 40 46 55 73 83 83 70 83
12 12 17 23 21 24 32 23 41 29 22 32 48 22 23 28 33 36 35 41 50 42 42 44 36 25 21 21 18 31 64 65 70 61 52 46 34 32 34 50 98 85 64 64 50 52 46 41 66
20 15 14 15 22 21 33 26 37 39 36 26 42 45 20 25 26 27 30 44 45 57 47 43 42 38 31 27 27 31 40 47 53 56 39 35 30 26 21 42 86 94 74 54 62 82 58 48 59
53 19 23 22 24 19 28 64 65 62 45 47 40 57 56 41 29 26 27 30 60 70 54 59 54 42 32 30 27 26 27 41 43 45 82 36 20 19 24 38 90 100 75 66 85 80 38 38 51
75 36 32 22 26 18 46 76 62 46 65 56 30 50 84 66 55 47 35 33 31 49 70 86 83 66 63 38 27 30 31 25 36 79 63 56 44 21 55 93 99 99 98 96 95 56 61 78 80
86 33 34 41 31 20 30 66 74 59 53 39 27 72 85 80 40 32 30 26 26 31 48 62 59 56 92 96 93 70 56 72 67 69 80 95 95 98 95 97 97 98 99 98 95 77 83 82 66
81 31 32 28 25 24 22 28 60 62 41 48 63 76 50 23 37 40 52 27 19 20 27 41 70 100 94 68 62 66 50 70 77 90 97 96 97 97 97 95 96 100 99 91 89 84 83 66 36

GFSSGP_500_rhum_084.txt.gz
RH
25 28 32 33 26 18 10 6 5 6 14 23 41 56 56 60 64 61 77 80 82 97 92 86 99 78 76 68 54 54 50 49 82 96 93 93 75 75 76 68 65 64 68 68 65 65 72 78 80
30 31 36 35 21 14 7 4 6 12 29 36 45 45 46 44 52 46 49 60 71 78 76 71 93 86 73 47 49 50 47 52 75 92 94 92 70 74 75 67 65 66 70 70 70 70 68 72 75
33 36 40 26 17 8 6 5 9 24 30 43 39 30 30 37 48 47 48 55 48 55 67 76 70 74 64 52 77 86 54 60 78 97 96 74 64 71 69 65 64 66 76 77 72 68 72 70 66
40 42 36 19 13 7 6 6 12 21 21 22 22 23 33 37 40 38 54 61 70 68 75 89 65 58 62 56 51 56 57 63 64 84 99 95 80 77 69 63 65 73 82 79 75 69 70 63 61
48 45 27 17 12 8 6 7 16 21 21 17 20 27 27 34 26 36 73 73 72 94 90 94 97 88 71 55 72 52 46 53 71 83 77 96 81 71 64 65 72 78 82 78 75 66 64 62 66
51 42 24 16 11 8 6 11 17 18 14 13 18 24 24 22 35 85 73 93 94 96 96 96 97 97 78 63 55 39 32 43 94 96 68 85 80 59 64 70 78 90 80 75 72 66 71 84 78
48 42 22 14 9 8 9 13 18 12 11 27 18 14 17 34 63 75 60 83 96 97 96 97 96 96 95 87 99 86 43 41 60 90 74 89 72 58 64 78 78 87 82 87 83 84 83 89 91
48 40 20 12 10 10 8 14 12 20 26 27 19 14 27 46 58 73 54 66 92 96 95 96 95 94 96 96 93 94 94 80 78 79 92 98 85 58 66 65 89 90 87 83 84 94 96 96 98
50 40 18 11 8 9 10 9 12 27 20 23 25 16 30 48 47 53 46 45 60 97 96 97 97 96 92 95 96 96 96 97 92 79 75 95 72 59 55 71 73 83 90 94 95 90 94 96 96
51 37 16 11 9 7 11 10 26 36 20 33 57 34 46 43 55 31 21 34 43 94 97 96 96 91 73 86 93 96 96 94 97 90 60 95 84 74 58 72 80 93 97 100 100 89 94 96 91
53 35 18 12 8 7 10 13 29 37 20 32 41 59 63 41 47 27 14 22 33 80 71 97 90 80 84 80 86 94 93 97 98 95 90 94 83 84 70 71 90 98 98 100 98 100 96 98 90
52 38 16 11 9 8 8 12 29 30 42 49 57 66 72 75 66 32 14 16 29 36 59 63 77 81 71 89 91 94 97 97 97 96 96 96 96 82 72 78 87 100 99 98 98 97 97 98 92
54 37 16 10 9 13 12 23 29 34 39 41 50 58 78 79 48 27 17 14 16 25 36 66 68 74 76 63 62 91 96 96 97 96 97 96 94 89 75 89 88 88 98 98 98 99 96 98 97
58 44 18 11 10 16 14 15 33 45 60 53 57 68 90 67 46 26 14 14 13 25 31 45 59 73 89 80 91 98 97 97 96 94 96 95 95 96 88 97 83 87 96 98 100 100 98 98 98
58 50 19 14 15 14 15 21 40 42 50 48 54 59 61 58 48 31 17 14 13 13 14 37 53 64 78 94 95 98 97 97 96 94 94 96 93 96 95 96 98 88 97 99 98 100 96 95 97
57 53 21 19 15 18 27 24 31 37 37 46 47 49 47 47 54 44 25 18 14 12 14 24 47 52 64 89 96 95 97 97 97 96 93 96 97 97 97 97 97 98 97 98 97 91 100 98 93
67 58 24 17 17 18 29 32 31 38 35 43 30 39 43 57 58 58 48 36 18 11 11 20 36 42 61 69 86 92 86 84 88 80 96 97 96 97 96 98 96 96 98 96 90 91 97 98 80
78 58 34 18 21 14 20 32 33 43 30 30 30 31 32 39 40 46 55 42 22 16 10 14 20 27 62 87 75 79 91 92 96 94 99 99 97 98 97 97 96 97 100 98 93 95 100 85 79
71 55 44 17 21 12 16 22 33 34 24 26 35 32 26 28 14 28 64 59 38 28 16 13 16 21 59 78 84 86 97 95 94 89 95 99 100 95 94 97 93 92 95 96 85 90 87 82 80
78 60 49 20 18 14 14 20 35 40 29 24 28 37 23 17 13 19 48 90 74 59 49 40 31 64 70 56 61 70 88 83 100 100 100 96 98 98 100 98 99 94 90 85 86 86 88 79 82
77 64 60 36 20 14 11 16 26 36 44 23 28 33 28 18 31 20 16 56 86 87 84 78 70 61 76 91 81 67 67 73 80 85 83 89 99 100 91 82 80 76 74 81 87 91 85 79 84
69 80 69 50 35 19 16 10 28 24 35 32 22 29 30 25 36 48 43 12 31 58 68 54 52 44 45 53 56 54 52 51 51 62 68 70 69 72 79 79 68 66 65 79 80 58 50 53 63
88 98 92 64 51 35 19 13 23 27 38 47 40 39 31 28 34 45 45 46 30 12 19 24 23 20 18 20 20 22 27 24 30 50 57 59 58 60 59 47 41 40 44 41 36 42 46 51 57
96 95 87 79 66 42 22 15 26 22 32 30 37 35 28 26 33 42 42 40 42 43 36 22 16 12 12 12 13 13 14 16 16 18 20 20 21 24 28 30 36 46 52 60 63 61 74 86 99
86 72 78 71 62 48 32 17 15 21 31 50 29 20 20 20 25 40 39 35 35 39 39 44 35 26 22 18 18 22 31 39 44 48 51 50 49 49 45 44 42 46 60 45 59 69 63 53 66
82 82 82 86 77 70 57 21 16 26 21 45 32 28 25 22 23 26 28 27 26 34 40 50 40 40 41 32 30 26 30 47 61 66 65 62 56 53 48 44 35 31 31 29 28 43 66 93 98
83 70 81 83 85 74 64 29 12 26 20 35 44 41 36 25 24 22 27 27 26 27 39 50 59 54 45 40 37 34 34 36 34 29 28 31 35 41 50 75 87 91 66 47 28 55 78 68 98
62 94 94 88 83 75 54 47 24 14 21 36 45 60 52 40 41 36 36 34 48 61 47 42 58 69 65 60 47 34 32 28 26 27 31 32 29 31 75 90 99 98 98 99 97 100 99 98 98
59 66 79 76 68 60 54 45 40 20 14 24 60 63 66 48 44 53 48 57 50 41 36 54 69 69 78 88 75 67 68 50 49 53 89 90 87 86 89 96 96 100 99 99 96 73 100 99 96
48 69 97 97 81 74 59 44 55 30 14 15 25 55 37 51 27 44 66 62 33 47 31 33 51 65 74 93 100 97 98 98 85 94 92 99 94 94 100 98 98 99 98 97 83 56 68 83 80

GFSSGP_500_rhum_087.txt.gz
RH
25 26 26 30 33 32 24 13 7 6 6 5 5 10 30 39 43 47 49 53 50 45 70 63 94 88 88 78 83 82 61 56 54 54 71 95 96 95 86 66 61 58 58 61 63 63 61 64 68
32 30 31 34 37 32 19 11 7 8 6 5 6 22 47 39 42 38 42 48 48 56 52 62 39 60 80 63 76 65 54 46 46 49 80 95 94 82 62 60 59 62 59 66 67 66 70 68 67
39 37 38 41 38 25 17 12 8 9 8 8 12 26 28 30 24 27 33 37 45 48 54 57 42 40 77 70 60 52 46 32 34 58 73 83 93 77 62 61 60 60 60 65 69 69 67 69 71
43 42 44 44 33 21 15 10 8 10 9 12 19 21 23 28 28 23 24 30 44 56 64 78 74 91 68 45 56 58 40 42 61 57 80 84 96 97 71 62 59 57 64 74 87 83 82 82 74
45 47 47 43 30 19 12 8 8 9 10 20 16 13 21 24 21 19 26 56 72 87 88 88 85 98 98 85 54 47 35 44 57 53 61 84 96 96 74 62 60 61 73 80 76 78 81 69 67
45 50 47 44 26 16 10 7 7 9 10 14 12 10 13 13 14 26 56 53 55 80 99 95 96 95 96 96 96 49 42 35 42 47 49 70 99 96 84 69 64 67 74 80 78 77 78 73 75
46 46 48 43 24 13 10 6 8 9 18 32 18 12 10 12 24 38 49 49 59 93 98 87 69 97 96 93 95 97 64 43 34 38 62 76 97 96 85 73 62 68 61 66 73 72 78 86 94
42 45 47 39 21 12 10 5 6 10 39 33 17 11 11 13 31 53 49 41 62 92 98 84 70 75 94 96 96 94 97 60 44 46 79 95 97 88 92 66 63 67 76 77 71 78 93 95 96
36 44 48 40 18 14 8 5 7 16 39 38 14 12 15 14 32 47 60 32 46 80 99 97 94 92 94 94 96 96 96 97 78 56 58 84 98 97 75 77 61 82 85 72 62 74 87 99 99
36 45 47 39 18 14 8 6 6 10 33 36 18 14 26 36 28 35 48 19 28 58 96 99 94 98 97 91 97 96 96 97 96 81 67 78 81 97 91 74 69 70 77 80 74 79 90 92 99
39 47 48 44 18 13 10 8 9 18 25 26 19 28 31 47 64 51 33 15 27 75 69 85 84 94 97 100 93 92 95 96 97 96 76 73 91 95 95 72 83 83 74 76 88 93 96 90 92
30 47 48 45 21 12 10 8 13 24 24 22 30 39 34 51 76 68 18 14 20 65 38 61 76 89 88 97 98 80 82 96 98 96 90 82 100 96 95 87 81 82 74 82 94 90 97 88 88
26 46 50 45 23 13 12 11 13 15 18 23 44 45 46 60 59 37 16 13 15 25 27 48 69 76 96 80 82 74 78 92 97 100 88 76 92 96 96 96 82 86 80 84 90 96 97 90 83
33 44 49 43 27 15 14 14 14 13 21 34 34 35 50 60 63 46 22 11 13 19 28 39 52 67 98 84 92 81 85 99 97 100 89 98 93 96 95 96 84 85 90 82 90 98 96 88 88
43 43 48 47 34 19 16 25 21 18 26 27 31 42 44 49 49 42 26 14 11 16 19 28 46 72 84 89 81 74 90 98 97 99 94 97 94 95 97 95 80 81 92 85 83 97 88 90 86
49 49 56 49 37 23 16 46 31 25 28 26 31 33 30 38 42 42 37 27 11 11 13 23 38 68 97 79 70 94 98 97 97 95 94 96 96 95 95 96 96 97 85 92 98 96 94 88 88
51 62 61 56 44 26 16 27 36 33 35 26 30 30 30 30 32 40 46 37 23 10 13 19 29 55 82 99 100 98 97 97 97 96 94 96 96 96 96 96 96 99 99 98 98 94 96 90 91
78 65 45 58 51 31 18 16 31 36 41 32 23 32 29 30 16 27 46 42 30 13 12 15 24 41 52 99 99 98 98 95 97 96 96 96 94 96 97 96 98 97 97 100 99 94 94 95 94
71 60 38 65 67 42 23 16 29 34 41 36 23 22 31 22 20 13 39 56 27 20 16 17 21 35 40 84 97 97 97 97 96 96 95 88 98 96 97 98 92 97 95 95 93 97 96 92 90
75 74 48 66 69 48 28 19 24 35 37 38 24 18 28 23 20 12 19 71 61 44 25 27 26 27 35 72 85 92 94 97 97 97 89 95 95 100 99 91 95 96 97 94 96 94 90 80 80
82 80 65 68 73 57 42 24 19 27 35 35 40 19 24 26 18 26 18 26 76 79 66 52 45 35 42 58 72 65 69 79 86 96 97 97 98 98 97 97 98 97 94 92 86 72 65 75 79
79 86 75 77 74 65 47 28 20 24 29 30 46 24 26 26 25 31 37 28 26 74 70 70 67 58 54 57 96 94 97 100 100 97 97 99 99 96 96 99 92 68 66 64 68 64 81 90 92
95 82 79 78 69 56 50 39 16 31 34 34 46 36 35 35 27 31 37 36 27 12 38 34 30 35 43 56 61 64 68 57 53 65 77 99 91 85 73 59 49 58 67 62 62 63 50 45 47
97 90 92 76 64 46 50 52 18 22 29 42 32 35 48 23 28 36 40 38 33 32 19 12 13 16 17 17 18 18 17 18 21 24 30 48 38 35 39 29 32 34 31 35 35 37 42 51 58
88 87 72 68 58 34 58 70 36 25 28 31 36 30 32 21 24 32 39 38 33 34 32 30 24 18 15 13 12 12 13 14 16 18 24 30 33 33 35 36 38 42 48 48 46 33 30 32 34
88 96 87 92 68 64 70 54 58 32 23 25 28 33 26 41 25 28 28 30 27 29 34 39 37 31 31 23 19 18 19 23 31 42 51 49 52 50 47 45 45 44 38 29 36 29 26 27 30
53 73 96 96 76 71 62 50 59 37 26 26 40 36 34 58 49 31 30 31 29 28 31 36 44 50 41 34 34 31 27 28 31 39 46 47 43 42 39 38 41 62 85 95 94 93 98 97 96
24 54 79 78 63 65 53 53 46 63 44 20 47 45 39 53 73 61 42 43 37 39 46 46 49 48 56 50 44 36 33 32 31 29 26 25 27 29 30 26 56 74 77 73 82 95 100 98 97
17 38 52 52 50 48 45 36 43 64 63 32 26 40 39 50 56 62 67 66 54 52 52 52 54 57 62 72 76 63 50 39 42 34 31 47 56 76 70 79 80 86 92 97 98 98 98 98 97
17 24 49 60 59 57 50 34 56 67 79 56 32 30 57 67 60 51 50 60 77 67 40 42 37 53 70 78 76 84 83 85 91 94 94 90 94 97 90 82 84 96 94 98 98 98 98 96 86

GFSSGP_500_rhum_090.txt.gz
RH
26 33 34 32 33 34 34 30 19 13 8 6 6 5 5 6 7 12 16 22 32 42 45 41 43 33 20 51 45 44 64 72 72 66 65 54 88 96 94 72 62 60 60 59 60 57 57 52 60
35 30 33 36 38 40 36 24 16 10 6 6 6 6 6 10 11 12 19 24 34 39 43 48 50 47 63 96 66 51 42 69 59 60 56 56 78 81 95 94 89 87 69 58 59 61 63 62 60
32 30 39 39 38 41 34 21 14 8 6 6 9 8 8 11 17 19 20 26 28 31 37 49 52 48 42 49 88 98 98 86 63 48 47 63 96 98 97 95 74 58 60 63 58 60 60 64 68
31 38 40 44 41 36 29 18 11 7 4 6 8 8 9 10 12 21 26 23 22 24 36 50 54 76 61 51 86 94 98 64 55 46 34 46 85 97 95 79 63 62 60 56 62 63 74 82 76
30 43 39 42 40 36 24 15 11 4 4 7 8 10 11 10 11 18 18 16 30 61 62 71 92 95 96 94 94 85 86 51 43 45 51 47 75 96 94 81 69 63 58 64 70 68 75 73 66
29 44 36 41 42 36 23 14 9 4 5 7 10 13 16 13 11 12 13 27 49 55 58 77 96 96 89 93 94 96 69 46 42 53 59 56 66 76 97 81 70 71 62 68 63 69 73 75 70
28 42 39 41 46 38 22 14 7 5 6 10 14 16 18 18 12 11 13 46 56 66 77 97 94 89 95 92 93 96 62 37 36 48 45 52 76 97 95 86 76 68 67 65 60 62 65 60 61
28 43 41 40 45 38 22 14 7 5 6 11 17 22 21 18 19 12 19 42 60 64 88 94 90 85 97 86 94 97 93 79 39 41 47 46 69 95 92 81 72 74 69 64 65 65 63 56 70
26 43 45 41 46 31 22 14 7 6 8 9 10 20 26 20 26 42 34 32 39 37 66 97 94 81 94 96 94 96 95 96 84 54 40 52 69 94 91 79 81 76 68 63 71 71 69 64 74
26 44 46 40 44 35 22 13 9 7 12 12 12 20 20 20 24 46 58 41 26 22 94 96 97 88 86 89 96 96 98 96 73 64 49 60 60 96 87 86 76 76 69 78 82 76 78 69 73
28 49 52 37 40 34 24 13 9 8 9 12 15 15 40 43 43 55 63 46 24 39 90 85 90 93 79 87 90 92 92 94 95 94 69 61 87 89 88 82 71 73 82 82 68 63 76 71 76
33 48 56 49 38 34 26 14 10 7 6 8 14 28 30 39 50 59 62 40 24 23 61 62 82 90 96 96 91 84 88 96 96 97 96 76 69 96 98 87 76 80 89 76 68 66 69 76 74
37 46 51 54 46 38 29 17 10 9 10 14 17 25 28 36 41 47 43 25 20 16 34 28 54 74 81 84 94 93 92 88 96 97 97 89 65 86 96 98 83 79 83 74 72 69 68 82 89
33 45 53 52 48 42 35 20 12 12 12 14 12 23 31 33 38 37 42 32 16 13 18 25 44 68 87 99 97 98 94 96 96 97 97 97 97 91 81 97 87 77 74 72 68 73 77 87 82
43 45 50 57 53 46 40 22 16 13 15 18 16 23 25 24 25 30 33 32 17 12 19 28 33 53 88 95 92 87 82 83 90 98 96 96 97 96 93 98 97 79 77 72 73 70 79 94 93
47 49 52 59 51 49 44 25 17 13 15 19 19 23 21 23 27 26 32 32 24 11 11 14 18 40 78 93 78 94 80 86 88 88 96 97 96 93 92 95 98 93 82 72 76 68 97 93 87
43 55 64 65 51 46 45 38 19 15 20 24 22 23 20 19 18 18 32 34 25 16 9 12 19 32 62 98 82 82 88 100 96 97 97 93 97 94 96 96 95 93 92 89 76 82 98 96 84
71 74 75 59 57 50 48 44 20 18 18 27 21 23 22 19 18 17 21 46 26 26 10 11 16 27 51 94 90 89 96 97 98 96 96 96 96 95 96 95 93 93 96 96 96 98 96 98 94
71 72 69 66 68 64 58 36 24 19 19 27 24 24 29 20 18 20 11 55 28 20 13 11 13 24 45 69 97 99 91 94 97 95 97 96 97 96 96 96 97 97 97 97 98 99 97 96 95
63 71 76 69 69 73 60 37 35 19 18 28 26 23 32 24 19 17 12 38 57 32 19 14 13 17 41 48 95 94 96 97 97 96 97 96 96 97 95 95 90 98 96 95 96 95 96 96 96
73 80 91 68 68 73 62 45 50 34 17 25 29 23 27 34 22 17 20 14 54 67 48 26 18 22 24 40 82 91 95 97 96 96 96 97 97 97 97 96 95 96 95 95 96 96 95 83 74
87 99 90 72 70 75 56 40 48 33 19 17 23 24 26 34 30 19 25 30 9 55 71 69 40 26 31 41 65 92 92 89 95 96 97 96 96 96 97 93 94 94 96 97 94 70 49 55 59
95 93 96 84 77 64 60 47 48 37 20 20 27 24 22 38 40 21 24 37 30 11 39 43 46 58 60 67 64 68 81 87 87 87 93 94 96 95 96 95 92 86 82 57 41 30 30 41 44
98 99 95 86 90 66 58 64 49 50 22 20 28 25 26 32 39 22 27 38 33 29 23 10 25 20 25 42 57 66 69 55 47 50 55 80 96 93 81 70 54 40 24 23 26 27 29 31 32
61 89 97 98 86 71 56 65 56 50 34 25 31 29 26 27 21 22 24 36 36 31 30 26 20 12 12 11 12 14 15 13 12 12 14 18 22 23 22 23 26 29 30 31 33 33 30 29 23
51 83 98 98 98 88 57 50 60 82 68 26 34 26 31 29 23 23 25 27 30 28 28 29 30 28 24 20 15 13 13 15 15 18 21 23 27 30 33 37 38 37 37 35 30 29 40 58 59
32 67 92 96 96 80 70 49 53 74 75 30 24 29 26 37 32 28 26 27 26 24 21 21 27 32 36 31 27 22 18 19 20 24 31 42 44 48 47 43 37 36 35 36 55 69 80 74 82
31 28 44 84 85 88 65 52 46 54 79 72 19 28 26 46 35 36 40 46 34 34 35 31 29 32 37 50 39 33 30 27 24 25 33 34 33 32 31 29 29 28 29 61 64 65 67 78 93
42 60 28 33 51 62 58 56 33 54 76 88 56 23 46 47 39 36 46 43 39 47 54 47 38 34 40 43 62 56 44 35 32 32 30 30 28 28 30 31 49 58 51 59 66 73 85 98 98
19 13 12 12 27 40 45 51 46 52 71 90 91 38 28 34 40 43 59 63 52 49 40 36 24 34 40 48 51 65 76 76 66 69 81 81 67 69 60 56 71 73 73 77 86 83 95 98 95

GFSSGP_500_rhum_093.txt.gz
RH
21 23 30 25 29 27 50 59 29 23 16 10 7 4 4 5 7 17 7 7 13 20 22 27 35 34 32 27 68 72 58 73 93 90 88 81 71 62 69 81 96 88 63 54 51 50 46 41 41
20 24 28 26 38 65 56 59 31 21 13 9 4 3 4 5 6 5 5 9 11 18 24 26 39 40 38 57 72 88 87 80 92 91 83 84 70 59 91 99 96 93 74 57 54 54 52 40 46
20 23 22 30 36 46 60 43 32 20 12 6 3 3 4 6 6 7 7 8 15 18 24 25 34 40 47 68 62 96 93 76 68 86 80 65 68 59 83 100 89 94 75 60 74 89 82 78 53
20 23 26 39 39 68 35 36 23 18 11 5 3 4 5 7 9 8 8 10 16 21 19 19 24 31 45 57 68 75 85 96 73 59 54 55 55 56 87 100 94 95 95 94 83 65 61 66 66
21 21 29 34 37 46 33 29 24 16 9 4 4 5 7 12 14 9 9 10 12 14 21 50 53 52 76 97 87 96 97 96 87 62 59 45 44 86 92 98 96 93 85 70 66 66 66 71 75
20 23 27 44 61 56 29 28 26 15 8 5 5 6 12 12 15 13 14 13 12 18 42 57 66 60 71 95 91 95 97 95 96 70 52 44 39 52 97 95 93 84 78 73 78 79 77 66 65
21 27 27 35 48 42 37 28 23 15 8 6 9 7 17 13 24 18 14 23 17 25 45 55 65 72 96 96 91 93 97 96 96 67 45 51 44 46 64 95 83 81 78 78 77 66 55 64 62
22 29 29 36 49 42 33 27 23 15 8 5 7 8 12 13 15 15 14 18 39 20 32 50 67 88 98 92 88 88 97 94 96 89 54 59 44 47 43 82 79 79 74 75 77 64 71 69 58
24 31 33 46 49 40 32 30 26 14 6 7 11 11 12 12 30 37 32 34 44 37 32 27 82 100 97 97 95 69 94 96 97 68 47 51 43 46 48 97 84 78 70 78 76 69 70 61 61
30 31 38 47 53 45 37 31 29 16 7 8 16 37 7 28 27 35 45 53 51 33 30 95 97 100 97 96 97 88 72 84 84 96 53 47 47 44 76 96 94 73 70 76 76 74 73 63 64
36 32 40 46 43 50 40 35 30 16 8 8 9 12 16 22 25 40 52 56 55 17 40 93 83 89 95 96 97 95 96 96 87 79 69 52 41 60 62 85 87 74 72 66 79 78 78 69 70
36 36 35 41 46 44 39 38 32 20 10 8 10 15 17 19 33 39 48 44 43 20 15 50 63 80 98 100 96 95 94 94 96 93 74 57 49 62 71 71 86 80 74 66 74 81 82 74 74
41 42 34 35 44 44 36 46 34 25 13 9 10 18 14 21 24 26 36 36 34 22 12 30 37 40 86 100 96 96 96 97 96 96 88 71 62 67 77 88 88 79 72 70 66 78 79 75 77
50 40 37 36 44 44 36 47 42 28 16 10 11 19 14 20 21 28 29 29 31 26 10 12 18 27 65 82 95 93 82 88 94 96 96 95 71 71 90 94 81 79 73 72 67 71 78 78 93
56 42 40 38 49 48 38 46 50 32 18 10 12 20 18 16 21 21 19 27 23 23 11 9 17 28 38 56 88 97 87 80 95 96 97 95 95 70 78 87 92 88 90 76 68 70 72 85 93
63 52 40 53 48 58 40 49 65 34 20 9 11 17 22 17 19 19 18 19 30 23 16 8 16 16 24 50 74 92 99 88 82 96 98 98 95 88 77 68 75 82 95 89 76 70 65 82 97
57 54 51 64 64 58 35 48 94 48 26 13 9 16 23 19 18 16 19 14 31 25 19 9 12 13 26 41 61 78 85 88 84 96 100 95 96 96 95 95 92 85 92 96 88 78 70 75 84
64 57 54 88 93 43 49 38 68 68 33 16 10 16 23 24 18 16 18 13 36 28 20 15 8 11 21 43 53 65 85 85 80 81 84 100 93 97 97 98 93 89 92 96 91 94 93 88 91
95 72 78 86 84 73 57 44 49 67 31 18 11 16 20 28 20 18 17 17 27 36 20 20 8 10 15 34 82 89 72 79 78 88 92 87 84 96 98 97 98 99 95 94 93 95 96 96 98
95 73 61 74 82 78 65 48 42 58 37 28 19 11 19 28 24 22 17 21 15 52 24 18 11 9 12 28 68 98 93 94 95 97 97 96 96 96 97 96 97 95 95 96 96 96 98 97 95
99 84 83 91 92 83 64 53 46 55 56 45 26 11 17 25 27 26 19 24 17 45 60 37 24 13 12 20 40 84 94 88 94 97 97 97 97 97 96 97 96 95 97 96 97 95 96 96 95
91 100 97 93 82 80 96 58 50 56 55 39 31 12 18 24 30 27 19 25 28 11 55 64 51 20 14 15 24 62 93 93 94 97 96 97 96 97 97 97 96 96 95 96 96 95 96 95 86
89 95 95 98 92 82 91 72 46 58 61 53 33 13 16 25 28 21 17 24 31 28 13 38 42 54 38 31 43 47 72 90 90 94 94 95 96 96 96 96 96 97 95 95 96 95 56 43 33
66 92 98 99 98 90 88 81 48 76 96 69 27 14 13 26 26 19 16 26 33 29 26 16 13 25 30 48 56 68 82 89 92 88 91 87 90 95 96 96 97 92 80 62 60 39 27 26 31
28 77 94 95 97 87 100 77 56 98 70 36 28 16 16 28 24 17 19 22 34 31 28 26 24 18 12 13 16 25 45 45 33 32 44 61 87 96 90 65 44 28 24 24 25 27 29 41 53
16 47 64 73 98 98 99 73 60 92 96 70 51 35 16 22 24 23 18 23 21 29 28 26 25 26 25 21 15 12 10 11 11 11 12 15 19 21 20 26 25 27 30 32 32 67 55 55 52
25 48 72 78 97 99 99 92 78 72 80 80 76 52 18 19 29 27 30 21 25 20 21 20 19 19 25 31 28 23 17 14 13 14 18 22 25 28 28 33 36 36 34 31 29 51 48 56 70
63 63 67 61 88 100 98 97 100 80 81 89 88 49 22 21 21 27 32 30 27 22 25 30 26 26 22 25 36 35 28 24 22 21 20 22 27 34 39 42 40 36 31 31 28 25 46 59 72
96 68 53 28 57 100 98 100 99 80 91 95 93 79 34 20 25 26 28 32 39 37 33 33 23 24 22 23 25 46 39 32 30 29 28 28 29 29 27 27 27 26 29 48 59 49 56 60 70
40 89 67 57 68 99 100 87 99 80 66 70 92 87 63 28 26 26 26 33 42 57 54 43 21 16 15 20 25 34 53 54 52 44 40 44 55 58 56 51 63 43 54 69 70 68 70 68 74

GFSSGP_500_rhum_096.txt.gz
RH
22 24 20 22 19 21 51 74 66 52 49 21 14 10 6 4 4 8 6 8 7 6 7 12 20 24 30 28 21 24 64 64 52 22 50 58 77 93 85 70 71 81 90 86 79 64 37 39 32
24 25 21 21 20 27 65 81 70 56 32 22 14 8 4 4 5 4 3 7 8 8 8 12 16 21 30 39 38 37 44 100 99 63 92 99 94 87 81 73 75 92 85 64 72 46 36 36 32
22 24 21 22 20 24 54 74 47 42 37 18 11 6 3 5 4 6 7 8 7 8 8 13 20 22 26 31 53 63 93 94 94 94 93 97 92 82 72 70 86 94 93 91 74 41 36 32 41
18 20 21 25 22 30 62 55 46 35 30 20 10 5 4 4 5 9 11 9 7 8 9 12 19 17 19 32 32 57 91 96 95 90 68 87 94 82 80 66 87 100 96 75 38 57 66 86 85
19 18 19 22 25 55 65 33 33 32 24 20 10 5 4 8 5 9 11 9 10 10 10 11 17 33 49 56 60 65 81 97 96 95 89 89 82 68 61 67 73 98 100 91 68 85 93 72 74
20 20 19 26 66 67 61 43 26 31 24 20 11 4 4 7 7 12 10 10 10 12 26 18 27 49 58 64 61 63 96 98 95 96 94 64 86 57 53 58 78 98 96 96 96 93 85 64 66
22 21 20 24 33 37 60 48 26 29 25 20 11 6 6 9 7 10 20 25 22 19 27 45 33 30 42 60 64 70 92 96 96 95 98 96 65 46 34 53 98 96 97 94 84 67 74 85 83
24 22 20 30 35 53 70 50 32 36 27 23 12 5 8 8 12 19 21 25 41 44 50 52 48 43 40 47 84 86 90 82 81 97 97 86 95 47 40 73 97 95 95 86 77 83 87 79 68
26 23 22 34 54 81 62 46 33 40 29 22 12 6 5 5 9 17 22 29 57 64 58 45 40 60 85 92 92 95 96 86 73 95 96 89 87 46 40 48 86 93 92 78 84 85 72 67 69
27 26 27 42 65 49 41 48 46 50 42 28 15 10 6 5 12 20 26 34 40 49 46 26 61 96 95 90 93 90 85 78 78 93 96 92 61 39 39 38 41 89 87 79 73 66 70 74 69
28 27 33 39 37 30 34 33 36 52 40 30 17 8 8 10 10 20 18 29 36 39 36 22 19 82 61 95 93 95 84 96 78 96 96 96 78 28 38 37 47 69 94 77 71 65 70 78 65
30 29 28 44 42 34 30 28 31 48 44 34 20 10 8 8 12 20 18 24 29 26 32 25 13 52 37 57 96 95 86 88 88 95 97 96 60 35 44 47 86 99 94 93 68 66 62 60 74
35 32 30 41 44 40 32 26 31 36 48 36 23 12 7 10 14 18 21 17 22 24 23 23 10 14 18 33 95 95 92 78 86 96 96 88 37 48 53 51 78 95 93 79 74 73 56 52 73
48 39 33 37 46 41 36 30 29 44 48 40 27 14 7 9 16 15 18 17 15 21 22 21 12 11 21 36 79 90 97 97 96 96 93 74 44 58 64 73 82 82 82 85 77 66 59 56 67
63 46 37 36 47 44 46 29 35 54 48 44 26 15 8 9 12 15 15 16 13 23 14 19 12 10 21 25 45 72 92 96 96 96 96 83 53 57 64 71 76 85 83 80 76 64 63 55 67
68 62 45 47 56 50 53 35 41 65 46 46 40 19 8 11 17 15 15 15 15 14 19 18 15 12 14 16 29 59 84 94 93 96 96 93 99 88 70 68 65 93 88 84 76 69 68 60 68
76 67 58 48 62 66 63 49 55 99 52 52 48 24 8 12 17 17 15 14 16 18 20 19 17 12 11 14 28 45 54 73 89 91 97 96 98 97 96 94 70 86 97 85 80 78 73 75 68
82 85 80 59 67 70 75 46 48 78 78 50 45 30 11 9 20 19 16 14 17 19 30 20 22 11 10 13 21 51 70 67 76 86 93 96 97 97 98 98 94 95 92 94 95 92 81 85 84
100 89 87 75 76 100 100 88 44 60 67 79 73 42 23 10 17 23 18 13 18 19 41 20 20 11 11 12 19 40 77 73 85 90 95 97 96 96 98 97 97 97 95 94 88 89 89 82 88
99 94 86 92 75 77 81 62 45 58 55 65 57 48 51 12 14 25 20 14 20 15 41 42 19 13 10 14 34 54 78 92 90 91 94 96 97 95 98 96 96 96 98 96 94 98 95 91 96
89 92 98 96 96 93 92 85 42 54 61 67 65 61 52 20 12 25 21 14 20 19 29 56 37 21 14 13 25 66 72 88 96 96 97 93 93 95 96 96 96 97 97 97 96 92 93 94 87
92 99 98 93 100 84 100 76 64 50 54 76 50 47 44 17 10 24 20 15 19 25 12 42 48 41 18 14 13 20 37 66 94 95 97 97 97 97 96 97 96 96 96 93 96 94 93 96 96
92 99 99 95 96 98 87 83 62 53 58 70 80 55 47 15 12 23 22 14 18 28 23 12 29 33 43 26 15 23 36 45 62 91 91 97 95 98 97 96 96 96 95 94 95 95 95 97 90
100 100 80 95 99 76 84 98 73 61 68 92 96 65 39 16 15 22 22 14 17 29 28 24 18 13 16 26 38 39 53 51 50 50 66 83 93 96 95 95 95 95 95 94 91 85 68 46 47
100 74 37 71 85 64 93 97 82 83 95 100 98 62 34 17 17 16 22 15 17 26 28 27 26 24 20 13 14 25 41 58 69 68 64 59 67 87 92 93 94 94 89 74 44 49 44 33 35
84 96 48 25 76 94 96 81 83 89 98 91 99 64 41 26 19 15 22 19 16 16 20 20 20 20 23 25 20 14 10 14 17 17 15 29 54 66 86 92 71 50 30 24 41 38 33 44 61
95 90 75 28 88 97 95 93 97 98 97 98 78 74 71 55 22 17 19 26 19 17 13 15 16 15 15 15 24 28 21 14 12 11 12 13 18 37 44 31 25 24 24 30 32 33 39 62 69
90 100 91 28 48 71 99 98 99 96 98 98 97 81 68 66 24 20 17 22 26 23 19 16 16 17 15 15 14 23 36 30 23 20 18 16 18 23 30 33 38 40 39 36 30 27 41 45 46
97 92 75 98 76 69 84 96 98 97 95 95 98 100 86 75 28 23 20 23 23 31 28 26 23 19 15 13 13 15 30 41 34 27 25 23 21 22 27 29 29 28 28 27 28 48 62 57 51
83 56 97 71 79 93 92 87 98 98 90 98 98 100 89 81 63 22 22 23 22 28 38 45 34 25 16 16 15 17 16 49 52 43 42 36 36 39 35 38 40 50 58 50 39 57 70 81 87

GFSSGP_500_rhum_102.txt.gz
RH
9 8 8 16 24 23 21 23 23 22 21 25 34 50 58 45 25 15 7 4 4 4 5 5 5 6 6 7 7 9 19 66 94 91 60 23 58 18 6 9 12 27 25 26 39 87 85 70 60
10 9 9 13 21 22 22 22 22 18 28 32 40 47 46 29 24 12 5 5 4 6 7 7 6 6 7 8 9 10 16 26 20 27 18 19 14 12 12 16 14 28 36 46 78 87 89 76 58
13 10 10 12 17 20 25 20 22 25 30 23 34 31 29 27 21 11 4 3 5 7 6 7 7 7 7 9 10 14 18 30 38 32 58 60 44 30 22 14 13 36 44 55 74 89 90 92 56
14 12 12 15 18 19 20 18 20 20 24 34 36 31 28 23 20 11 4 3 4 6 7 13 11 7 9 9 10 14 15 20 29 39 62 84 68 99 36 18 17 39 69 89 87 92 88 82 61
18 14 16 18 21 21 20 22 23 18 21 29 41 42 28 23 17 14 5 3 4 6 12 17 20 19 11 16 11 12 20 35 37 64 48 95 73 89 62 64 66 80 98 87 88 95 88 65 71
20 18 18 22 24 22 31 32 26 18 45 31 38 33 23 26 19 16 6 4 4 11 18 26 31 42 37 25 28 25 37 45 49 94 97 81 94 96 97 97 85 86 96 83 84 93 56 29 40
20 20 21 25 26 24 26 26 31 35 38 30 34 23 21 30 22 16 7 5 7 18 20 30 43 46 33 43 51 48 34 45 50 63 74 97 91 96 96 95 80 92 92 76 82 76 58 32 46
22 15 22 25 27 26 23 21 23 25 25 20 32 36 19 26 27 23 11 6 6 14 16 29 42 41 30 73 78 88 75 54 69 80 80 96 98 94 96 96 80 99 84 78 89 87 81 84 59
20 15 25 26 28 27 26 22 22 28 28 25 29 34 21 21 23 26 17 8 8 13 22 22 29 40 39 34 87 93 96 97 94 93 85 98 97 95 96 98 92 76 72 79 91 97 98 71 70
17 16 27 29 29 29 28 26 24 29 35 30 34 27 22 22 32 29 20 9 10 14 17 15 21 31 36 26 41 37 63 94 93 94 99 90 82 91 94 96 95 89 88 64 91 100 87 87 95
21 14 30 30 31 31 30 29 26 28 38 42 51 45 31 21 33 31 20 10 11 12 13 12 10 22 32 26 27 20 49 89 90 95 90 79 71 78 84 95 96 96 65 47 70 90 87 97 79
15 16 28 31 34 34 31 31 29 29 38 47 55 45 29 24 40 33 19 11 11 14 11 11 9 13 26 23 14 22 62 83 93 95 93 80 72 66 97 98 91 62 44 53 81 94 96 82 96
14 22 22 28 37 36 35 33 34 30 34 45 43 49 39 35 41 34 18 10 11 16 13 9 8 8 20 20 12 29 58 68 73 90 97 90 83 73 83 97 80 37 38 71 97 98 81 90 94
26 14 15 19 26 30 35 46 42 36 46 49 50 43 42 40 40 38 17 11 14 17 14 12 8 8 17 16 16 29 67 94 91 76 91 79 93 79 96 96 70 39 48 61 87 84 81 89 90
18 10 9 15 30 37 43 28 44 42 45 45 44 46 41 45 41 38 16 11 18 14 14 11 9 17 17 14 16 25 62 87 88 75 76 64 98 99 97 93 63 41 38 43 55 70 86 80 95
18 11 7 9 31 42 52 13 38 47 48 50 45 49 44 46 36 36 24 14 19 16 14 11 10 18 17 13 13 28 57 65 75 71 72 92 97 97 86 93 64 33 32 38 46 69 82 86 98
11 7 7 12 46 64 58 18 32 57 52 50 51 52 47 44 32 36 36 17 22 18 15 12 13 19 19 12 13 25 43 61 87 89 97 97 97 81 95 72 36 25 26 48 76 96 95 83 93
11 11 10 9 45 75 58 14 18 41 50 53 59 47 47 40 33 38 26 17 21 18 16 14 14 23 18 13 12 20 37 66 74 96 96 97 97 97 83 53 21 24 31 56 63 79 90 92 80
16 9 6 9 17 43 49 24 32 47 59 54 46 44 56 62 44 36 43 21 22 21 20 16 15 29 20 14 11 16 37 65 78 81 95 96 96 94 94 60 39 51 64 61 62 66 68 78 81
15 12 9 12 29 37 48 18 21 51 56 59 57 51 58 65 35 33 53 34 24 26 23 17 16 26 29 16 12 12 40 75 79 95 95 96 96 97 96 82 53 64 89 89 85 77 77 80 90
11 9 10 12 47 34 36 4 15 46 69 76 64 61 51 56 45 39 50 39 30 27 23 18 20 19 37 18 14 13 59 63 68 84 97 93 97 97 96 95 92 95 96 94 94 96 96 95 94
10 27 21 18 26 18 51 6 21 50 69 79 75 79 81 64 55 54 64 32 30 27 23 19 25 15 36 23 16 17 33 51 75 98 91 96 95 96 97 96 94 93 92 95 96 97 97 96 96
14 47 31 31 29 31 32 35 7 46 62 78 78 86 96 76 54 66 68 43 27 26 21 20 28 21 17 33 17 16 22 40 75 75 97 97 96 97 97 97 96 97 96 98 96 98 97 94 97
29 47 52 52 49 23 33 63 20 39 76 85 78 100 97 95 64 58 53 62 32 24 19 22 31 26 21 18 30 29 24 33 75 72 78 88 97 96 96 97 97 97 96 96 96 97 96 99 96
19 54 54 43 32 15 36 62 36 57 81 70 69 66 80 70 56 57 53 84 36 22 18 20 29 27 25 22 16 33 43 49 60 76 62 69 84 96 97 97 96 97 97 98 97 97 97 97 97
58 69 56 56 50 57 75 52 52 67 73 72 69 60 77 75 67 54 53 59 29 23 18 16 17 16 16 14 22 14 22 46 72 75 77 76 74 64 95 97 97 97 97 96 97 97 97 97 97
49 90 80 87 74 64 72 67 62 78 88 66 72 85 99 72 86 94 92 41 25 24 21 14 13 12 10 10 11 23 16 13 16 18 16 26 69 91 94 97 97 98 96 96 96 97 97 95 94
49 80 94 86 76 75 59 63 73 85 91 100 80 100 97 93 98 98 75 41 27 27 23 19 17 14 11 11 13 12 20 21 12 11 11 11 16 62 80 95 100 100 85 86 91 92 92 82 77
55 75 100 100 93 81 70 69 88 96 86 98 88 88 92 86 94 98 97 76 33 29 27 22 22 17 14 11 11 13 14 18 27 20 15 13 16 18 50 99 85 56 54 49 53 42 35 35 33
75 98 99 91 75 79 73 69 87 96 94 98 100 92 85 82 79 95 85 83 35 32 32 28 27 23 19 15 12 12 16 17 28 28 28 23 22 21 25 28 29 29 32 39 41 40 37 34 30